Wetterdaten: aktuell Dienstag, 26.09.2023 15:10
Datum Zeit Temp. A. Boden +5cm Boden -5cm Boden -10cm Boden -20cm Feuchte A. Blattfeuchte Bodenf. -5cm Bodenf.-10cm Bodenf.-20cm Bodenf.-50cm Luftdruck Regen Wind Richtung Richtung Sonnenschein ET UV Solar Taupunkt Windchill Windben
26.09.2023 15:10 22,0 C 25,6 C 16,1 C 14,4 C 13,3 C 54 % 0 lf 38 cb 200 cb 155 cb 198 cb 1019,8 hPa 0,0 l/m 0,0 km/h (0 Bft) SO 136 2 min 0,000 mm 1,8 UV-I 410 W/m 12,3 C 22,0 C 0,0 km/h (0 Bft)
26.09.2023 15:08 22,1 C 25,0 C 16,1 C 14,4 C 13,3 C 54 % 0 lf 38 cb 200 cb 155 cb 198 cb 1019,8 hPa 0,0 l/m 0,0 km/h (0 Bft) SO 136 2 min 0,000 mm 2,0 UV-I 443 W/m 12,3 C 22,1 C 0,0 km/h (0 Bft)
26.09.2023 15:06 22,1 C 25,0 C 16,1 C 14,4 C 13,3 C 54 % 0 lf 37 cb 200 cb 155 cb 198 cb 1019,8 hPa 0,0 l/m 0,0 km/h (0 Bft) S-SW 208 2 min 0,000 mm 1,9 UV-I 385 W/m 12,3 C 22,1 C 0,0 km/h (0 Bft)
26.09.2023 15:04 22,1 C 25,0 C 16,1 C 14,4 C 13,3 C 53 % 0 lf 37 cb 200 cb 155 cb 198 cb 1019,8 hPa 0,0 l/m 0,0 km/h (0 Bft) S-SW 209 2 min 0,000 mm 1,9 UV-I 362 W/m 12,1 C 22,1 C 0,0 km/h (0 Bft)
26.09.2023 15:02 22,1 C 25,6 C 16,1 C 14,4 C 13,3 C 52 % 0 lf 38 cb 200 cb 155 cb 198 cb 1019,8 hPa 0,0 l/m 0,0 km/h (0 Bft) S-SW 209 2 min 0,330 mm 2,2 UV-I 401 W/m 11,8 C 22,1 C 0,0 km/h (0 Bft)
26.09.2023 15:00 22,1 C 26,7 C 16,1 C 14,4 C 13,3 C 56 % 0 lf 38 cb 200 cb 155 cb 198 cb 1019,8 hPa 0,0 l/m 0,0 km/h (0 Bft) SW 214 2 min 0,000 mm 2,4 UV-I 410 W/m 12,9 C 22,1 C 0,0 km/h (0 Bft)
26.09.2023 14:58 22,1 C 26,7 C 16,1 C 14,4 C 13,3 C 52 % 0 lf 38 cb 200 cb 155 cb 198 cb 1019,9 hPa 0,0 l/m 0,0 km/h (0 Bft) SW 214 2 min 0,000 mm 2,6 UV-I 496 W/m 11,8 C 22,1 C 0,0 km/h (0 Bft)
26.09.2023 14:56 22,1 C 27,8 C 16,1 C 14,4 C 13,3 C 53 % 0 lf 39 cb 200 cb 155 cb 198 cb 1019,8 hPa 0,0 l/m 0,0 km/h (0 Bft) S-SW 213 2 min 0,000 mm 2,4 UV-I 466 W/m 12,1 C 22,1 C 0,0 km/h (0 Bft)
26.09.2023 14:54 22,2 C 28,3 C 15,6 C 14,4 C 13,3 C 52 % 0 lf 39 cb 200 cb 155 cb 198 cb 1019,8 hPa 0,0 l/m 0,0 km/h (0 Bft) SW 215 2 min 0,000 mm 2,7 UV-I 543 W/m 11,9 C 22,2 C 0,0 km/h (0 Bft)
26.09.2023 14:52 22,2 C 28,9 C 15,6 C 14,4 C 13,3 C 54 % 0 lf 39 cb 200 cb 155 cb 198 cb 1019,8 hPa 0,0 l/m 0,0 km/h (0 Bft) SW 215 2 min 0,000 mm 2,7 UV-I 527 W/m 12,4 C 22,2 C 0,0 km/h (0 Bft)
26.09.2023 14:50 22,3 C 28,9 C 15,6 C 14,4 C 13,3 C 57 % 0 lf 39 cb 200 cb 155 cb 198 cb 1019,8 hPa 0,0 l/m 0,0 km/h (0 Bft) SW 215 2 min 0,000 mm 2,8 UV-I 547 W/m 13,4 C 22,3 C 0,0 km/h (0 Bft)
26.09.2023 14:48 22,2 C 30,0 C 15,6 C 14,4 C 13,3 C 57 % 0 lf 39 cb 200 cb 155 cb 198 cb 1019,8 hPa 0,0 l/m 0,0 km/h (0 Bft) SW 215 2 min 0,000 mm 2,8 UV-I 513 W/m 13,3 C 22,2 C 0,0 km/h (0 Bft)
26.09.2023 14:46 22,1 C 31,1 C 15,6 C 14,4 C 13,3 C 58 % 0 lf 40 cb 200 cb 155 cb 198 cb 1019,8 hPa 0,0 l/m 0,0 km/h (0 Bft) SW 215 2 min 0,000 mm 2,9 UV-I 506 W/m 13,4 C 22,1 C 0,0 km/h (0 Bft)
26.09.2023 14:44 21,8 C 31,7 C 15,6 C 14,4 C 13,3 C 57 % 0 lf 40 cb 200 cb 155 cb 198 cb 1019,8 hPa 0,0 l/m 0,0 km/h (0 Bft) SW 216 2 min 0,000 mm 2,8 UV-I 540 W/m 12,9 C 21,8 C 0,0 km/h (0 Bft)
26.09.2023 14:42 21,8 C 31,1 C 15,6 C 14,4 C 13,3 C 57 % 0 lf 40 cb 200 cb 155 cb 198 cb 1019,9 hPa 0,0 l/m 0,0 km/h (0 Bft) SW 216 2 min 0,000 mm 2,9 UV-I 557 W/m 12,9 C 21,8 C 0,0 km/h (0 Bft)
26.09.2023 14:40 21,8 C 30,6 C 15,6 C 14,4 C 13,3 C 55 % 0 lf 39 cb 200 cb 156 cb 198 cb 1019,8 hPa 0,0 l/m 0,0 km/h (0 Bft) SW 216 2 min 0,000 mm 2,9 UV-I 547 W/m 12,4 C 21,8 C 0,0 km/h (0 Bft)
26.09.2023 14:38 21,8 C 30,6 C 15,6 C 14,4 C 13,3 C 55 % 0 lf 39 cb 200 cb 156 cb 198 cb 1019,8 hPa 0,0 l/m 0,0 km/h (0 Bft) SW 216 2 min 0,000 mm 2,9 UV-I 524 W/m 12,4 C 21,8 C 0,0 km/h (0 Bft)
26.09.2023 14:36 21,8 C 30,6 C 15,6 C 14,4 C 13,3 C 53 % 0 lf 39 cb 200 cb 156 cb 198 cb 1019,8 hPa 0,0 l/m 0,0 km/h (0 Bft) SW 216 2 min 0,000 mm 2,9 UV-I 512 W/m 11,8 C 21,8 C 0,0 km/h (0 Bft)
26.09.2023 14:34 21,8 C 31,1 C 15,6 C 14,4 C 13,3 C 54 % 0 lf 39 cb 200 cb 156 cb 198 cb 1019,8 hPa 0,0 l/m 0,0 km/h (0 Bft) SW 216 2 min 0,000 mm 3,0 UV-I 531 W/m 12,1 C 21,8 C 0,0 km/h (0 Bft)
26.09.2023 14:32 21,8 C 31,7 C 15,6 C 14,4 C 13,3 C 55 % 0 lf 40 cb 200 cb 156 cb 198 cb 1019,9 hPa 0,0 l/m 0,0 km/h (0 Bft) SW 216 2 min 0,000 mm 2,9 UV-I 487 W/m 12,4 C 21,8 C 0,0 km/h (0 Bft)
26.09.2023 14:30 21,8 C 31,1 C 15,6 C 14,4 C 13,3 C 51 % 0 lf 39 cb 200 cb 156 cb 198 cb 1019,9 hPa 0,0 l/m 0,0 km/h (0 Bft) SW 217 2 min 0,000 mm 2,9 UV-I 469 W/m 11,2 C 21,8 C 0,0 km/h (0 Bft)
26.09.2023 14:28 21,9 C 31,7 C 15,6 C 14,4 C 13,3 C 54 % 0 lf 40 cb 200 cb 156 cb 198 cb 1019,9 hPa 0,0 l/m 0,0 km/h (0 Bft) SW 217 2 min 0,000 mm 3,0 UV-I 464 W/m 12,2 C 21,9 C 0,0 km/h (0 Bft)
26.09.2023 14:26 21,9 C 32,8 C 15,6 C 14,4 C 13,3 C 54 % 0 lf 40 cb 200 cb 156 cb 198 cb 1020,0 hPa 0,0 l/m 0,0 km/h (0 Bft) SW 217 2 min 0,000 mm 3,0 UV-I 422 W/m 12,2 C 21,9 C 0,0 km/h (0 Bft)
26.09.2023 14:24 21,8 C 32,2 C 15,6 C 14,4 C 13,3 C 56 % 0 lf 40 cb 200 cb 156 cb 198 cb 1020,0 hPa 0,0 l/m 0,0 km/h (0 Bft) SW 216 1 min 0,000 mm 3,0 UV-I 415 W/m 12,6 C 21,8 C 0,0 km/h (0 Bft)
26.09.2023 14:23 21,8 C 32,8 C 15,6 C 14,4 C 13,3 C 54 % 0 lf 40 cb 200 cb 157 cb 198 cb 1020,1 hPa 0,0 l/m 0,0 km/h (0 Bft) S-SW 196 1 min 0,000 mm 3,0 UV-I 429 W/m 12,1 C 21,8 C 0,0 km/h (0 Bft)
26.09.2023 14:22 21,8 C 32,2 C 15,6 C 13,9 C 13,3 C 54 % 0 lf 40 cb 200 cb 154 cb 198 cb 1020,0 hPa 0,0 l/m 0,0 km/h (0 Bft) S-SW 196 4 min 0,000 mm 3,1 UV-I 425 W/m 12,1 C 21,8 C 0,0 km/h (0 Bft)
26.09.2023 14:18 21,9 C 31,1 C 15,0 C 13,9 C 13,3 C 55 % 0 lf 39 cb 200 cb 154 cb 198 cb 1020,1 hPa 0,0 l/m 0,0 km/h (0 Bft) S-SW 196 2 min 0,000 mm 3,1 UV-I 462 W/m 12,4 C 21,9 C 0,0 km/h (0 Bft)
26.09.2023 14:16 21,8 C 31,7 C 15,0 C 13,9 C 13,3 C 57 % 0 lf 40 cb 200 cb 154 cb 198 cb 1020,1 hPa 0,0 l/m 0,0 km/h (0 Bft) S-SW 195 2 min 0,000 mm 3,1 UV-I 469 W/m 12,9 C 21,8 C 0,0 km/h (0 Bft)
26.09.2023 14:14 21,8 C 31,7 C 15,0 C 13,9 C 13,3 C 57 % 0 lf 40 cb 200 cb 154 cb 198 cb 1020,1 hPa 0,0 l/m 0,0 km/h (0 Bft) S-SW 195 2 min 0,000 mm 3,1 UV-I 478 W/m 12,9 C 21,8 C 0,0 km/h (0 Bft)
26.09.2023 14:12 21,9 C 30,6 C 15,0 C 13,9 C 13,3 C 57 % 0 lf 39 cb 200 cb 154 cb 198 cb 1020,1 hPa 0,0 l/m 0,0 km/h (0 Bft) S-SW 192 2 min 0,000 mm 3,1 UV-I 487 W/m 13,0 C 21,9 C 0,0 km/h (0 Bft)
26.09.2023 14:10 21,8 C 30,0 C 15,0 C 13,9 C 13,3 C 55 % 0 lf 39 cb 200 cb 155 cb 198 cb 1020,0 hPa 0,0 l/m 0,0 km/h (0 Bft) S 188 2 min 0,000 mm 3,2 UV-I 510 W/m 12,4 C 21,8 C 0,0 km/h (0 Bft)
26.09.2023 14:08 21,8 C 29,4 C 15,0 C 13,9 C 13,3 C 58 % 0 lf 39 cb 200 cb 155 cb 198 cb 1020,0 hPa 0,0 l/m 0,0 km/h (0 Bft) S 186 2 min 0,000 mm 3,1 UV-I 508 W/m 13,2 C 21,8 C 0,0 km/h (0 Bft)
26.09.2023 14:06 21,7 C 29,4 C 15,0 C 13,9 C 13,3 C 55 % 0 lf 39 cb 200 cb 155 cb 198 cb 1020,1 hPa 0,0 l/m 0,0 km/h (0 Bft) S 186 2 min 0,000 mm 3,1 UV-I 499 W/m 12,3 C 21,7 C 0,0 km/h (0 Bft)
26.09.2023 14:04 21,7 C 28,9 C 15,0 C 13,9 C 13,3 C 57 % 0 lf 38 cb 200 cb 155 cb 198 cb 1020,0 hPa 0,0 l/m 0,0 km/h (0 Bft) S 186 2 min 0,000 mm 3,2 UV-I 554 W/m 12,8 C 21,7 C 0,0 km/h (0 Bft)
26.09.2023 14:02 21,7 C 28,9 C 15,0 C 13,9 C 13,3 C 56 % 0 lf 38 cb 200 cb 155 cb 198 cb 1020,1 hPa 0,0 l/m 0,0 km/h (0 Bft) S 186 2 min 0,355 mm 3,2 UV-I 563 W/m 12,5 C 21,7 C 0,0 km/h (0 Bft)
26.09.2023 14:00 21,7 C 28,9 C 15,0 C 13,9 C 13,3 C 60 % 0 lf 38 cb 200 cb 155 cb 198 cb 1020,1 hPa 0,0 l/m 0,0 km/h (0 Bft) S 188 2 min 0,000 mm 3,1 UV-I 538 W/m 13,6 C 21,7 C 0,0 km/h (0 Bft)
26.09.2023 13:58 21,6 C 28,9 C 15,0 C 13,9 C 13,3 C 57 % 0 lf 38 cb 200 cb 155 cb 198 cb 1020,1 hPa 0,0 l/m 0,0 km/h (0 Bft) S 188 2 min 0,000 mm 3,2 UV-I 540 W/m 12,7 C 21,6 C 0,0 km/h (0 Bft)
26.09.2023 13:56 21,6 C 28,3 C 14,4 C 13,9 C 13,3 C 57 % 0 lf 38 cb 200 cb 155 cb 198 cb 1020,1 hPa 0,0 l/m 0,0 km/h (0 Bft) S 188 2 min 0,000 mm 3,2 UV-I 552 W/m 12,7 C 21,6 C 0,0 km/h (0 Bft)
26.09.2023 13:54 21,6 C 28,3 C 14,4 C 13,9 C 13,3 C 57 % 0 lf 38 cb 200 cb 155 cb 198 cb 1020,0 hPa 0,0 l/m 0,0 km/h (0 Bft) S 188 2 min 0,000 mm 3,1 UV-I 547 W/m 12,7 C 21,6 C 0,0 km/h (0 Bft)
26.09.2023 13:52 21,6 C 27,8 C 14,4 C 13,9 C 13,3 C 57 % 0 lf 38 cb 200 cb 156 cb 198 cb 1020,0 hPa 0,0 l/m 0,0 km/h (0 Bft) S 188 2 min 0,000 mm 2,9 UV-I 559 W/m 12,7 C 21,6 C 0,0 km/h (0 Bft)
26.09.2023 13:50 21,6 C 27,2 C 14,4 C 13,9 C 13,3 C 60 % 0 lf 38 cb 200 cb 155 cb 198 cb 1020,0 hPa 0,0 l/m 0,0 km/h (0 Bft) S 184 2 min 0,000 mm 2,6 UV-I 575 W/m 13,5 C 21,6 C 0,0 km/h (0 Bft)
26.09.2023 13:48 21,4 C 26,7 C 14,4 C 13,9 C 13,3 C 58 % 0 lf 37 cb 200 cb 156 cb 198 cb 1020,0 hPa 0,0 l/m 0,0 km/h (0 Bft) S 183 2 min 0,000 mm 2,5 UV-I 550 W/m 12,8 C 21,4 C 0,0 km/h (0 Bft)
26.09.2023 13:46 21,4 C 25,6 C 14,4 C 13,9 C 13,3 C 56 % 0 lf 37 cb 200 cb 156 cb 198 cb 1020,0 hPa 0,0 l/m 0,0 km/h (0 Bft) S 183 2 min 0,000 mm 2,6 UV-I 536 W/m 12,3 C 21,4 C 0,0 km/h (0 Bft)
26.09.2023 13:44 21,4 C 25,6 C 14,4 C 13,3 C 13,3 C 57 % 0 lf 37 cb 200 cb 154 cb 198 cb 1020,0 hPa 0,0 l/m 0,0 km/h (0 Bft) S 182 2 min 0,000 mm 2,5 UV-I 541 W/m 12,5 C 21,4 C 0,0 km/h (0 Bft)
26.09.2023 13:42 21,3 C 26,1 C 14,4 C 13,3 C 13,3 C 58 % 0 lf 37 cb 200 cb 154 cb 198 cb 1019,8 hPa 0,0 l/m 0,0 km/h (0 Bft) S 183 2 min 0,000 mm 2,9 UV-I 508 W/m 12,7 C 21,3 C 0,0 km/h (0 Bft)
26.09.2023 13:40 21,4 C 26,1 C 14,4 C 13,3 C 13,3 C 58 % 0 lf 37 cb 200 cb 154 cb 198 cb 1019,9 hPa 0,0 l/m 0,0 km/h (0 Bft) S 182 2 min 0,000 mm 3,2 UV-I 555 W/m 12,8 C 21,4 C 0,0 km/h (0 Bft)
26.09.2023 13:38 21,4 C 25,6 C 14,4 C 13,3 C 13,3 C 59 % 0 lf 37 cb 200 cb 154 cb 198 cb 1019,8 hPa 0,0 l/m 0,0 km/h (0 Bft) S 182 2 min 0,000 mm 3,2 UV-I 531 W/m 13,0 C 21,4 C 0,0 km/h (0 Bft)
26.09.2023 13:36 21,4 C 25,0 C 13,9 C 13,3 C 13,3 C 58 % 0 lf 36 cb 200 cb 154 cb 198 cb 1019,8 hPa 0,0 l/m 0,0 km/h (0 Bft) S 178 2 min 0,000 mm 3,2 UV-I 506 W/m 12,8 C 21,4 C 0,0 km/h (0 Bft)
26.09.2023 13:34 21,4 C 25,6 C 13,9 C 13,3 C 13,3 C 62 % 0 lf 37 cb 200 cb 154 cb 198 cb 1019,8 hPa 0,0 l/m 0,0 km/h (0 Bft) S 177 2 min 0,000 mm 3,2 UV-I 536 W/m 13,8 C 21,4 C 0,0 km/h (0 Bft)
26.09.2023 13:32 21,2 C 25,0 C 13,9 C 13,3 C 12,8 C 58 % 0 lf 37 cb 200 cb 154 cb 195 cb 1019,7 hPa 0,0 l/m 0,0 km/h (0 Bft) S 176 2 min 0,000 mm 3,2 UV-I 519 W/m 12,6 C 21,2 C 0,0 km/h (0 Bft)
26.09.2023 13:30 21,3 C 25,0 C 13,9 C 13,3 C 12,8 C 58 % 0 lf 37 cb 200 cb 154 cb 195 cb 1019,8 hPa 0,0 l/m 0,0 km/h (0 Bft) S 171 2 min 0,000 mm 3,2 UV-I 513 W/m 12,7 C 21,3 C 0,0 km/h (0 Bft)
26.09.2023 13:28 21,1 C 24,4 C 13,9 C 13,3 C 12,8 C 57 % 0 lf 36 cb 200 cb 154 cb 195 cb 1019,8 hPa 0,0 l/m 0,0 km/h (0 Bft) S 171 2 min 0,000 mm 3,4 UV-I 555 W/m 12,2 C 21,1 C 0,0 km/h (0 Bft)
26.09.2023 13:26 21,2 C 23,3 C 13,9 C 13,3 C 12,8 C 58 % 0 lf 36 cb 200 cb 154 cb 195 cb 1019,9 hPa 0,0 l/m 0,0 km/h (0 Bft) S 171 2 min 0,000 mm 3,2 UV-I 512 W/m 12,6 C 21,2 C 0,0 km/h (0 Bft)
26.09.2023 13:24 21,3 C 22,8 C 13,9 C 13,3 C 12,8 C 58 % 0 lf 35 cb 200 cb 155 cb 195 cb 1020,0 hPa 0,0 l/m 0,0 km/h (0 Bft) S 170 2 min 0,000 mm 3,3 UV-I 541 W/m 12,7 C 21,3 C 0,0 km/h (0 Bft)
26.09.2023 13:22 21,3 C 22,2 C 13,9 C 13,3 C 12,8 C 57 % 0 lf 35 cb 200 cb 155 cb 195 cb 1020,1 hPa 0,0 l/m 0,0 km/h (0 Bft) S 170 2 min 0,000 mm 3,3 UV-I 503 W/m 12,4 C 21,3 C 0,0 km/h (0 Bft)
26.09.2023 13:20 21,4 C 22,2 C 13,9 C 13,3 C 12,8 C 58 % 0 lf 35 cb 200 cb 155 cb 195 cb 1020,0 hPa 0,0 l/m 0,0 km/h (0 Bft) S 170 2 min 0,000 mm 3,1 UV-I 476 W/m 12,8 C 21,4 C 0,0 km/h (0 Bft)
26.09.2023 13:18 21,4 C 22,2 C 13,9 C 13,3 C 12,8 C 60 % 0 lf 35 cb 200 cb 155 cb 195 cb 1020,0 hPa 0,0 l/m 0,0 km/h (0 Bft) S 170 2 min 0,000 mm 3,3 UV-I 512 W/m 13,3 C 21,4 C 0,0 km/h (0 Bft)
26.09.2023 13:16 21,4 C 21,7 C 13,9 C 13,3 C 12,8 C 60 % 0 lf 35 cb 200 cb 155 cb 195 cb 1020,0 hPa 0,0 l/m 0,0 km/h (0 Bft) S 170 2 min 0,000 mm 3,6 UV-I 568 W/m 13,3 C 21,4 C 0,0 km/h (0 Bft)
26.09.2023 13:14 21,4 C 21,7 C 13,9 C 13,3 C 12,8 C 62 % 0 lf 35 cb 200 cb 155 cb 195 cb 1019,9 hPa 0,0 l/m 0,0 km/h (0 Bft) S 170 2 min 0,000 mm 3,6 UV-I 548 W/m 13,8 C 21,4 C 0,0 km/h (0 Bft)
26.09.2023 13:12 21,2 C 21,1 C 13,9 C 13,3 C 12,8 C 62 % 0 lf 34 cb 200 cb 155 cb 195 cb 1020,0 hPa 0,0 l/m 0,0 km/h (0 Bft) S 170 2 min 0,000 mm 3,4 UV-I 552 W/m 13,6 C 21,2 C 0,0 km/h (0 Bft)
26.09.2023 13:10 20,9 C 20,6 C 13,9 C 13,3 C 12,8 C 62 % 0 lf 34 cb 200 cb 155 cb 195 cb 1020,1 hPa 0,0 l/m 0,0 km/h (0 Bft) S 170 2 min 0,000 mm 3,4 UV-I 499 W/m 13,3 C 20,9 C 0,0 km/h (0 Bft)
26.09.2023 13:08 20,9 C 20,6 C 13,9 C 13,3 C 12,8 C 60 % 0 lf 34 cb 200 cb 155 cb 195 cb 1020,0 hPa 0,0 l/m 0,0 km/h (0 Bft) S 170 2 min 0,000 mm 3,3 UV-I 496 W/m 12,8 C 20,9 C 0,0 km/h (0 Bft)
26.09.2023 13:06 21,0 C 20,6 C 13,9 C 13,3 C 12,8 C 60 % 0 lf 34 cb 200 cb 155 cb 195 cb 1020,2 hPa 0,0 l/m 0,0 km/h (0 Bft) S-SW 198 2 min 0,000 mm 3,3 UV-I 487 W/m 12,9 C 21,0 C 0,0 km/h (0 Bft)
26.09.2023 13:04 20,8 C 20,6 C 13,9 C 13,3 C 12,8 C 61 % 0 lf 34 cb 200 cb 155 cb 195 cb 1020,1 hPa 0,0 l/m 0,0 km/h (0 Bft) S-SO 163 2 min 0,000 mm 3,4 UV-I 462 W/m 13,0 C 20,8 C 0,0 km/h (0 Bft)
26.09.2023 13:02 20,9 C 20,0 C 13,9 C 13,3 C 12,8 C 62 % 0 lf 34 cb 200 cb 155 cb 195 cb 1020,2 hPa 0,0 l/m 0,0 km/h (0 Bft) S-SO 161 2 min 0,280 mm 3,2 UV-I 459 W/m 13,3 C 20,9 C 0,0 km/h (0 Bft)
26.09.2023 13:00 20,9 C 20,0 C 13,3 C 13,3 C 12,8 C 61 % 0 lf 34 cb 200 cb 155 cb 195 cb 1020,1 hPa 0,0 l/m 0,0 km/h (0 Bft) S-SO 161 2 min 0,000 mm 3,1 UV-I 448 W/m 13,1 C 20,9 C 0,0 km/h (0 Bft)
26.09.2023 12:58 21,1 C 20,0 C 13,3 C 13,3 C 12,8 C 60 % 0 lf 34 cb 200 cb 156 cb 195 cb 1020,1 hPa 0,0 l/m 0,0 km/h (0 Bft) S-SO 167 2 min 0,000 mm 3,2 UV-I 436 W/m 13,0 C 21,1 C 0,0 km/h (0 Bft)
26.09.2023 12:56 21,1 C 20,0 C 13,3 C 13,3 C 12,8 C 62 % 0 lf 34 cb 200 cb 156 cb 195 cb 1020,0 hPa 0,0 l/m 0,0 km/h (0 Bft) S-SO 168 2 min 0,000 mm 3,4 UV-I 473 W/m 13,5 C 21,1 C 0,0 km/h (0 Bft)
26.09.2023 12:54 20,9 C 19,4 C 13,3 C 13,3 C 12,8 C 61 % 0 lf 33 cb 200 cb 156 cb 195 cb 1020,0 hPa 0,0 l/m 0,0 km/h (0 Bft) S-SO 168 2 min 0,000 mm 3,4 UV-I 483 W/m 13,1 C 20,9 C 0,0 km/h (0 Bft)
26.09.2023 12:52 20,8 C 19,4 C 13,3 C 13,3 C 12,8 C 61 % 0 lf 33 cb 200 cb 156 cb 195 cb 1020,0 hPa 0,0 l/m 0,0 km/h (0 Bft) S-SO 168 2 min 0,000 mm 3,4 UV-I 494 W/m 13,0 C 20,8 C 0,0 km/h (0 Bft)
26.09.2023 12:50 20,7 C 18,9 C 13,3 C 13,3 C 12,8 C 60 % 0 lf 33 cb 200 cb 156 cb 195 cb 1020,0 hPa 0,0 l/m 0,0 km/h (0 Bft) S-SO 168 2 min 0,000 mm 3,5 UV-I 529 W/m 12,7 C 20,7 C 0,0 km/h (0 Bft)
26.09.2023 12:48 20,7 C 18,9 C 13,3 C 13,3 C 12,8 C 61 % 0 lf 33 cb 200 cb 156 cb 195 cb 1020,0 hPa 0,0 l/m 0,0 km/h (0 Bft) S 169 0 min 0,000 mm 2,2 UV-I 304 W/m 12,9 C 20,7 C 0,0 km/h (0 Bft)
26.09.2023 12:46 20,9 C 18,9 C 13,3 C 13,3 C 12,8 C 61 % 0 lf 33 cb 200 cb 156 cb 195 cb 1020,0 hPa 0,0 l/m 0,0 km/h (0 Bft) S 171 2 min 0,000 mm 2,2 UV-I 396 W/m 13,1 C 20,9 C 0,0 km/h (0 Bft)
26.09.2023 12:44 21,0 C 19,4 C 13,3 C 13,3 C 12,8 C 62 % 0 lf 33 cb 200 cb 156 cb 195 cb 1020,0 hPa 0,0 l/m 0,0 km/h (0 Bft) S 173 2 min 0,000 mm 2,5 UV-I 396 W/m 13,4 C 21,0 C 0,0 km/h (0 Bft)
26.09.2023 12:42 20,9 C 18,9 C 13,3 C 12,8 C 12,8 C 62 % 0 lf 33 cb 200 cb 153 cb 195 cb 1019,9 hPa 0,0 l/m 0,0 km/h (0 Bft) S 173 2 min 0,000 mm 2,7 UV-I 431 W/m 13,3 C 20,9 C 0,0 km/h (0 Bft)
26.09.2023 12:40 20,7 C 18,9 C 13,3 C 12,8 C 12,8 C 61 % 0 lf 33 cb 200 cb 153 cb 195 cb 1020,0 hPa 0,0 l/m 0,0 km/h (0 Bft) S 173 2 min 0,000 mm 3,0 UV-I 427 W/m 12,9 C 20,7 C 0,0 km/h (0 Bft)
26.09.2023 12:38 20,6 C 18,9 C 13,3 C 12,8 C 12,8 C 61 % 0 lf 32 cb 200 cb 153 cb 195 cb 1019,9 hPa 0,0 l/m 0,0 km/h (0 Bft) S 173 2 min 0,000 mm 3,0 UV-I 378 W/m 12,8 C 20,6 C 0,0 km/h (0 Bft)
26.09.2023 12:36 20,5 C 18,9 C 13,3 C 12,8 C 12,8 C 59 % 0 lf 32 cb 200 cb 153 cb 195 cb 1020,0 hPa 0,0 l/m 0,0 km/h (0 Bft) S 173 2 min 0,000 mm 2,5 UV-I 353 W/m 12,2 C 20,5 C 0,0 km/h (0 Bft)
26.09.2023 12:34 20,5 C 18,9 C 13,3 C 12,8 C 12,8 C 58 % 0 lf 32 cb 200 cb 153 cb 195 cb 1020,0 hPa 0,0 l/m 0,0 km/h (0 Bft) S 173 2 min 0,000 mm 2,5 UV-I 397 W/m 11,9 C 20,5 C 0,0 km/h (0 Bft)
26.09.2023 12:32 20,6 C 18,9 C 13,3 C 12,8 C 12,8 C 59 % 0 lf 32 cb 200 cb 153 cb 195 cb 1019,9 hPa 0,0 l/m 0,0 km/h (0 Bft) S 169 2 min 0,000 mm 2,8 UV-I 411 W/m 12,3 C 20,6 C 0,0 km/h (0 Bft)
26.09.2023 12:30 20,6 C 18,9 C 13,3 C 12,8 C 12,8 C 62 % 0 lf 32 cb 200 cb 153 cb 195 cb 1020,0 hPa 0,0 l/m 0,0 km/h (0 Bft) S-SO 168 2 min 0,000 mm 2,6 UV-I 485 W/m 13,1 C 20,6 C 0,0 km/h (0 Bft)
26.09.2023 12:28 20,6 C 18,9 C 13,3 C 12,8 C 12,8 C 60 % 0 lf 32 cb 200 cb 153 cb 195 cb 1020,1 hPa 0,0 l/m 0,0 km/h (0 Bft) S 173 2 min 0,000 mm 2,9 UV-I 452 W/m 12,6 C 20,6 C 0,0 km/h (0 Bft)
26.09.2023 12:26 20,7 C 18,9 C 13,3 C 12,8 C 12,8 C 61 % 0 lf 32 cb 200 cb 153 cb 195 cb 1020,1 hPa 0,0 l/m 0,0 km/h (0 Bft) S 180 2 min 0,000 mm 3,1 UV-I 401 W/m 12,9 C 20,7 C 0,0 km/h (0 Bft)
26.09.2023 12:24 20,7 C 18,9 C 13,3 C 12,8 C 12,8 C 62 % 0 lf 32 cb 200 cb 153 cb 195 cb 1020,1 hPa 0,0 l/m 0,0 km/h (0 Bft) S 173 2 min 0,000 mm 2,8 UV-I 550 W/m 13,2 C 20,7 C 0,0 km/h (0 Bft)
26.09.2023 12:22 20,6 C 18,9 C 13,3 C 12,8 C 12,8 C 61 % 0 lf 33 cb 200 cb 153 cb 195 cb 1020,1 hPa 0,0 l/m 0,0 km/h (0 Bft) S 173 2 min 0,000 mm 3,1 UV-I 462 W/m 12,8 C 20,6 C 0,0 km/h (0 Bft)
26.09.2023 12:20 20,5 C 18,9 C 13,3 C 12,8 C 12,8 C 62 % 0 lf 33 cb 200 cb 154 cb 195 cb 1020,1 hPa 0,0 l/m 0,0 km/h (0 Bft) S-SW 196 2 min 0,000 mm 3,2 UV-I 606 W/m 13,0 C 20,5 C 0,0 km/h (0 Bft)
26.09.2023 12:18 20,4 C 18,3 C 13,3 C 12,8 C 12,8 C 63 % 0 lf 33 cb 200 cb 154 cb 195 cb 1020,1 hPa 0,0 l/m 0,0 km/h (0 Bft) S-SW 199 2 min 0,000 mm 3,2 UV-I 577 W/m 13,1 C 20,4 C 0,0 km/h (0 Bft)
26.09.2023 12:16 20,3 C 18,3 C 13,3 C 12,8 C 12,8 C 63 % 0 lf 33 cb 200 cb 154 cb 195 cb 1020,1 hPa 0,0 l/m 0,0 km/h (0 Bft) S-SW 199 2 min 0,000 mm 3,1 UV-I 594 W/m 13,0 C 20,3 C 0,0 km/h (0 Bft)
26.09.2023 12:14 20,2 C 18,3 C 13,3 C 12,8 C 12,8 C 62 % 0 lf 33 cb 200 cb 154 cb 195 cb 1020,2 hPa 0,0 l/m 0,0 km/h (0 Bft) S-SW 204 2 min 0,000 mm 2,7 UV-I 531 W/m 12,7 C 20,2 C 0,0 km/h (0 Bft)
26.09.2023 12:12 20,2 C 18,3 C 13,3 C 12,8 C 12,8 C 61 % 0 lf 33 cb 200 cb 154 cb 195 cb 1020,3 hPa 0,0 l/m 0,0 km/h (0 Bft) S-SW 204 2 min 0,000 mm 2,7 UV-I 425 W/m 12,4 C 20,2 C 0,0 km/h (0 Bft)
26.09.2023 12:10 20,2 C 18,3 C 13,3 C 12,8 C 12,8 C 61 % 0 lf 33 cb 200 cb 154 cb 195 cb 1020,1 hPa 0,0 l/m 0,0 km/h (0 Bft) SW 236 2 min 0,000 mm 2,6 UV-I 381 W/m 12,4 C 20,2 C 0,0 km/h (0 Bft)
26.09.2023 12:08 20,2 C 18,3 C 13,3 C 12,8 C 12,8 C 64 % 0 lf 33 cb 200 cb 154 cb 195 cb 1020,0 hPa 0,0 l/m 0,0 km/h (0 Bft) SW 221 2 min 0,000 mm 1,7 UV-I 508 W/m 13,2 C 20,2 C 0,0 km/h (0 Bft)
26.09.2023 12:06 20,1 C 18,3 C 13,3 C 12,8 C 12,8 C 63 % 0 lf 33 cb 200 cb 154 cb 195 cb 1020,1 hPa 0,0 l/m 0,0 km/h (0 Bft) S-SW 209 0 min 0,000 mm 1,7 UV-I 260 W/m 12,8 C 20,1 C 0,0 km/h (0 Bft)
26.09.2023 12:04 20,0 C 18,3 C 13,3 C 12,8 C 12,8 C 62 % 0 lf 33 cb 200 cb 154 cb 195 cb 1020,2 hPa 0,0 l/m 0,0 km/h (0 Bft) S-SW 211 0 min 0,000 mm 2,2 UV-I 97 W/m 12,5 C 20,0 C 0,0 km/h (0 Bft)
26.09.2023 12:02 20,1 C 18,3 C 13,3 C 12,8 C 12,8 C 63 % 0 lf 33 cb 200 cb 154 cb 195 cb 1020,2 hPa 0,0 l/m 0,0 km/h (0 Bft) S-SW 205 2 min 0,076 mm 2,3 UV-I 396 W/m 12,8 C 20,1 C 0,0 km/h (0 Bft)
26.09.2023 12:00 20,0 C 18,3 C 12,8 C 12,8 C 12,8 C 63 % 0 lf 33 cb 200 cb 154 cb 195 cb 1020,3 hPa 0,0 l/m 0,0 km/h (0 Bft) S 189 2 min 0,000 mm 2,1 UV-I 404 W/m 12,7 C 20,0 C 0,0 km/h (0 Bft)
26.09.2023 11:58 20,1 C 18,3 C 12,8 C 12,8 C 12,8 C 63 % 0 lf 33 cb 200 cb 154 cb 195 cb 1020,1 hPa 0,0 l/m 0,0 km/h (0 Bft) S 189 2 min 0,000 mm 1,4 UV-I 346 W/m 12,8 C 20,1 C 0,0 km/h (0 Bft)
26.09.2023 11:56 20,1 C 18,3 C 12,8 C 12,8 C 12,8 C 63 % 0 lf 33 cb 200 cb 154 cb 195 cb 1020,3 hPa 0,0 l/m 0,0 km/h (0 Bft) S 190 0 min 0,000 mm 1,4 UV-I 134 W/m 12,8 C 20,1 C 0,0 km/h (0 Bft)
26.09.2023 11:54 19,9 C 18,3 C 12,8 C 12,8 C 12,8 C 66 % 0 lf 33 cb 200 cb 154 cb 195 cb 1020,1 hPa 0,0 l/m 0,0 km/h (0 Bft) SW 225 0 min 0,000 mm 1,5 UV-I 93 W/m 13,4 C 19,9 C 0,0 km/h (0 Bft)
26.09.2023 11:52 19,8 C 17,8 C 12,8 C 12,8 C 12,8 C 66 % 0 lf 32 cb 200 cb 154 cb 195 cb 1020,3 hPa 0,0 l/m 0,0 km/h (0 Bft) SW 228 0 min 0,000 mm 1,4 UV-I 123 W/m 13,3 C 19,8 C 0,0 km/h (0 Bft)
26.09.2023 11:50 19,7 C 17,8 C 12,8 C 12,8 C 12,8 C 64 % 0 lf 32 cb 200 cb 154 cb 195 cb 1020,3 hPa 0,0 l/m 0,0 km/h (0 Bft) SW 229 0 min 0,000 mm 1,3 UV-I 104 W/m 12,7 C 19,7 C 0,0 km/h (0 Bft)
26.09.2023 11:48 19,6 C 17,8 C 12,8 C 12,8 C 12,8 C 64 % 0 lf 32 cb 200 cb 154 cb 195 cb 1020,3 hPa 0,0 l/m 0,0 km/h (0 Bft) S 173 0 min 0,000 mm 1,2 UV-I 72 W/m 12,6 C 19,6 C 0,0 km/h (0 Bft)
26.09.2023 11:46 19,6 C 17,8 C 12,8 C 12,8 C 12,8 C 65 % 0 lf 32 cb 200 cb 154 cb 195 cb 1020,3 hPa 0,0 l/m 0,0 km/h (0 Bft) S-SO 149 0 min 0,000 mm 1,2 UV-I 70 W/m 12,8 C 19,6 C 0,0 km/h (0 Bft)
26.09.2023 11:44 19,5 C 17,8 C 12,8 C 12,8 C 12,8 C 67 % 0 lf 32 cb 200 cb 155 cb 195 cb 1020,3 hPa 0,0 l/m 0,0 km/h (0 Bft) S-SO 148 0 min 0,000 mm 1,3 UV-I 69 W/m 13,2 C 19,5 C 0,0 km/h (0 Bft)
26.09.2023 11:42 19,4 C 17,8 C 12,8 C 12,8 C 12,8 C 67 % 0 lf 32 cb 200 cb 155 cb 195 cb 1020,3 hPa 0,0 l/m 0,0 km/h (0 Bft) S-SO 148 0 min 0,000 mm 1,2 UV-I 81 W/m 13,1 C 19,4 C 0,0 km/h (0 Bft)
26.09.2023 11:40 19,4 C 17,8 C 12,8 C 12,8 C 12,8 C 67 % 0 lf 32 cb 200 cb 155 cb 195 cb 1020,3 hPa 0,0 l/m 0,0 km/h (0 Bft) S-SO 148 0 min 0,000 mm 1,2 UV-I 74 W/m 13,1 C 19,4 C 0,0 km/h (0 Bft)
26.09.2023 11:38 19,3 C 17,8 C 12,8 C 12,8 C 12,8 C 68 % 0 lf 32 cb 200 cb 155 cb 195 cb 1020,3 hPa 0,0 l/m 0,0 km/h (0 Bft) S-SO 148 0 min 0,000 mm 1,2 UV-I 74 W/m 13,2 C 19,3 C 0,0 km/h (0 Bft)
26.09.2023 11:36 19,3 C 17,8 C 12,8 C 12,8 C 12,8 C 68 % 0 lf 32 cb 200 cb 155 cb 195 cb 1020,3 hPa 0,0 l/m 0,0 km/h (0 Bft) S-SO 148 0 min 0,000 mm 1,2 UV-I 83 W/m 13,2 C 19,3 C 0,0 km/h (0 Bft)
26.09.2023 11:34 19,3 C 17,2 C 12,8 C 12,8 C 12,8 C 67 % 0 lf 32 cb 200 cb 155 cb 195 cb 1020,2 hPa 0,0 l/m 0,0 km/h (0 Bft) S-SO 147 0 min 0,000 mm 1,2 UV-I 107 W/m 13,0 C 19,3 C 0,0 km/h (0 Bft)
26.09.2023 11:32 19,4 C 17,2 C 12,8 C 12,8 C 12,8 C 67 % 0 lf 32 cb 200 cb 155 cb 195 cb 1020,2 hPa 0,0 l/m 0,0 km/h (0 Bft) S-SO 147 0 min 0,000 mm 1,2 UV-I 83 W/m 13,1 C 19,4 C 0,0 km/h (0 Bft)
26.09.2023 11:30 19,4 C 17,8 C 12,8 C 12,8 C 12,8 C 69 % 0 lf 32 cb 200 cb 155 cb 195 cb 1020,3 hPa 0,0 l/m 0,0 km/h (0 Bft) S-SO 147 0 min 0,000 mm 1,2 UV-I 77 W/m 13,6 C 19,4 C 0,0 km/h (0 Bft)
26.09.2023 11:28 19,4 C 17,8 C 12,8 C 12,8 C 12,8 C 68 % 0 lf 32 cb 200 cb 155 cb 195 cb 1020,2 hPa 0,0 l/m 0,0 km/h (0 Bft) S-SO 147 0 min 0,000 mm 1,1 UV-I 95 W/m 13,3 C 19,4 C 0,0 km/h (0 Bft)
26.09.2023 11:26 19,4 C 17,8 C 12,8 C 12,8 C 12,8 C 68 % 0 lf 32 cb 200 cb 155 cb 195 cb 1020,3 hPa 0,0 l/m 0,0 km/h (0 Bft) S-SO 147 0 min 0,000 mm 1,1 UV-I 77 W/m 13,3 C 19,4 C 0,0 km/h (0 Bft)
26.09.2023 11:24 19,4 C 17,8 C 12,8 C 12,8 C 12,8 C 68 % 0 lf 32 cb 200 cb 155 cb 195 cb 1020,3 hPa 0,0 l/m 0,0 km/h (0 Bft) S-SO 148 0 min 0,000 mm 1,1 UV-I 74 W/m 13,3 C 19,4 C 0,0 km/h (0 Bft)
26.09.2023 11:22 19,3 C 17,2 C 12,8 C 12,8 C 12,8 C 69 % 0 lf 32 cb 200 cb 155 cb 195 cb 1020,4 hPa 0,0 l/m 0,0 km/h (0 Bft) S-SO 147 0 min 0,000 mm 1,1 UV-I 76 W/m 13,5 C 19,3 C 0,0 km/h (0 Bft)
26.09.2023 11:20 19,2 C 17,2 C 12,8 C 12,8 C 12,8 C 70 % 0 lf 32 cb 200 cb 155 cb 195 cb 1020,4 hPa 0,0 l/m 0,0 km/h (0 Bft) S-SO 148 0 min 0,000 mm 1,1 UV-I 77 W/m 13,6 C 19,2 C 0,0 km/h (0 Bft)
26.09.2023 11:18 19,1 C 17,2 C 12,8 C 12,8 C 12,8 C 67 % 0 lf 32 cb 200 cb 155 cb 195 cb 1020,4 hPa 0,0 l/m 0,0 km/h (0 Bft) S-SO 148 0 min 0,000 mm 1,0 UV-I 76 W/m 12,8 C 19,1 C 0,0 km/h (0 Bft)
26.09.2023 11:16 19,0 C 17,2 C 12,8 C 12,8 C 12,8 C 69 % 0 lf 32 cb 200 cb 155 cb 195 cb 1020,4 hPa 0,0 l/m 0,0 km/h (0 Bft) S-SO 148 0 min 0,000 mm 1,0 UV-I 74 W/m 13,2 C 19,0 C 0,0 km/h (0 Bft)
26.09.2023 11:15 19,0 C 17,2 C 12,8 C 12,8 C 12,8 C 68 % 0 lf 32 cb 200 cb 155 cb 195 cb 1020,4 hPa 0,0 l/m 0,0 km/h (0 Bft) S-SO 148 0 min 0,000 mm 1,0 UV-I 74 W/m 13,0 C 19,0 C 0,0 km/h (0 Bft)
26.09.2023 11:14 18,9 C 17,2 C 12,8 C 12,8 C 12,8 C 69 % 0 lf 32 cb 200 cb 155 cb 195 cb 1020,5 hPa 0,0 l/m 0,0 km/h (0 Bft) S-SO 148 0 min 0,000 mm 1,0 UV-I 70 W/m 13,1 C 18,9 C 0,0 km/h (0 Bft)
26.09.2023 11:10 18,7 C 17,2 C 12,8 C 12,8 C 12,8 C 70 % 0 lf 32 cb 200 cb 155 cb 194 cb 1020,5 hPa 0,0 l/m 0,0 km/h (0 Bft) S-SO 148 0 min 0,000 mm 1,0 UV-I 76 W/m 13,1 C 18,7 C 0,0 km/h (0 Bft)
26.09.2023 11:08 18,7 C 17,2 C 12,8 C 12,8 C 12,8 C 67 % 0 lf 32 cb 200 cb 155 cb 195 cb 1020,5 hPa 0,0 l/m 0,0 km/h (0 Bft) S-SO 148 0 min 0,000 mm 1,0 UV-I 88 W/m 12,4 C 18,7 C 0,0 km/h (0 Bft)
26.09.2023 11:06 18,7 C 17,2 C 12,8 C 12,8 C 12,8 C 67 % 0 lf 32 cb 200 cb 155 cb 194 cb 1020,5 hPa 0,0 l/m 0,0 km/h (0 Bft) S-SO 148 0 min 0,000 mm 1,0 UV-I 86 W/m 12,4 C 18,7 C 0,0 km/h (0 Bft)
26.09.2023 11:04 18,7 C 17,2 C 12,8 C 12,8 C 12,8 C 71 % 0 lf 32 cb 200 cb 155 cb 194 cb 1020,5 hPa 0,0 l/m 0,0 km/h (0 Bft) S-SO 148 0 min 0,000 mm 1,0 UV-I 114 W/m 13,3 C 18,7 C 0,0 km/h (0 Bft)
26.09.2023 11:02 18,5 C 17,2 C 12,8 C 12,8 C 12,8 C 71 % 0 lf 32 cb 200 cb 156 cb 194 cb 1020,5 hPa 0,0 l/m 0,0 km/h (0 Bft) S-SO 148 0 min 0,051 mm 1,0 UV-I 86 W/m 13,1 C 18,5 C 0,0 km/h (0 Bft)
26.09.2023 11:00 18,5 C 17,2 C 12,8 C 12,2 C 12,8 C 70 % 0 lf 32 cb 200 cb 154 cb 194 cb 1020,6 hPa 0,0 l/m 0,0 km/h (0 Bft) S-SO 148 0 min 0,000 mm 0,9 UV-I 83 W/m 12,9 C 18,5 C 0,0 km/h (0 Bft)
26.09.2023 10:58 18,4 C 17,2 C 12,8 C 12,2 C 12,8 C 69 % 0 lf 32 cb 200 cb 154 cb 194 cb 1020,5 hPa 0,0 l/m 0,0 km/h (0 Bft) S-SO 148 0 min 0,000 mm 0,9 UV-I 77 W/m 12,6 C 18,4 C 0,0 km/h (0 Bft)
26.09.2023 10:56 18,3 C 17,2 C 12,8 C 12,2 C 12,8 C 69 % 0 lf 32 cb 200 cb 154 cb 194 cb 1020,4 hPa 0,0 l/m 0,0 km/h (0 Bft) S-SO 148 0 min 0,000 mm 0,9 UV-I 84 W/m 12,5 C 18,3 C 0,0 km/h (0 Bft)
26.09.2023 10:54 18,3 C 16,7 C 12,2 C 12,2 C 12,8 C 70 % 0 lf 32 cb 200 cb 154 cb 194 cb 1020,5 hPa 0,0 l/m 0,0 km/h (0 Bft) S-SO 148 0 min 0,000 mm 0,9 UV-I 83 W/m 12,7 C 18,3 C 0,0 km/h (0 Bft)
26.09.2023 10:52 18,3 C 16,7 C 12,2 C 12,2 C 12,8 C 68 % 0 lf 32 cb 200 cb 154 cb 194 cb 1020,6 hPa 0,0 l/m 0,0 km/h (0 Bft) S-SO 151 0 min 0,000 mm 0,9 UV-I 84 W/m 12,3 C 18,3 C 0,0 km/h (0 Bft)
26.09.2023 10:50 18,2 C 16,7 C 12,2 C 12,2 C 12,8 C 69 % 0 lf 32 cb 200 cb 154 cb 194 cb 1020,6 hPa 0,0 l/m 0,0 km/h (0 Bft) S-SO 151 0 min 0,000 mm 0,9 UV-I 125 W/m 12,4 C 18,2 C 0,0 km/h (0 Bft)
26.09.2023 10:48 18,2 C 16,7 C 12,2 C 12,2 C 12,8 C 69 % 0 lf 32 cb 200 cb 154 cb 194 cb 1020,6 hPa 0,0 l/m 0,0 km/h (0 Bft) S-SO 149 0 min 0,000 mm 1,0 UV-I 139 W/m 12,4 C 18,2 C 0,0 km/h (0 Bft)
26.09.2023 10:46 18,1 C 16,7 C 12,2 C 12,2 C 12,8 C 69 % 0 lf 32 cb 200 cb 154 cb 194 cb 1020,7 hPa 0,0 l/m 0,0 km/h (0 Bft) S-SO 148 0 min 0,000 mm 0,8 UV-I 111 W/m 12,3 C 18,1 C 0,0 km/h (0 Bft)
26.09.2023 10:44 17,9 C 16,7 C 12,2 C 12,2 C 12,8 C 70 % 0 lf 32 cb 200 cb 154 cb 194 cb 1020,6 hPa 0,0 l/m 0,0 km/h (0 Bft) SO 146 0 min 0,000 mm 0,8 UV-I 76 W/m 12,3 C 17,9 C 0,0 km/h (0 Bft)
26.09.2023 10:42 17,8 C 16,1 C 12,2 C 12,2 C 12,8 C 70 % 0 lf 32 cb 200 cb 154 cb 194 cb 1020,7 hPa 0,0 l/m 0,0 km/h (0 Bft) SO 145 0 min 0,000 mm 0,8 UV-I 76 W/m 12,3 C 17,8 C 0,0 km/h (0 Bft)
26.09.2023 10:40 17,7 C 16,1 C 12,2 C 12,2 C 12,8 C 70 % 0 lf 32 cb 200 cb 154 cb 194 cb 1020,6 hPa 0,0 l/m 0,0 km/h (0 Bft) SO 146 0 min 0,000 mm 0,8 UV-I 76 W/m 12,2 C 17,7 C 0,0 km/h (0 Bft)
26.09.2023 10:38 17,6 C 16,1 C 12,2 C 12,2 C 12,8 C 70 % 0 lf 32 cb 200 cb 154 cb 194 cb 1020,6 hPa 0,0 l/m 0,0 km/h (0 Bft) S-SO 158 0 min 0,000 mm 0,7 UV-I 74 W/m 12,1 C 17,6 C 0,0 km/h (0 Bft)
26.09.2023 10:36 17,5 C 16,1 C 12,2 C 12,2 C 12,8 C 70 % 0 lf 32 cb 200 cb 154 cb 194 cb 1020,7 hPa 0,0 l/m 0,0 km/h (0 Bft) S-SO 159 0 min 0,000 mm 0,7 UV-I 77 W/m 12,0 C 17,5 C 0,0 km/h (0 Bft)
26.09.2023 10:34 17,4 C 16,1 C 12,2 C 12,2 C 12,8 C 70 % 0 lf 32 cb 200 cb 154 cb 194 cb 1020,6 hPa 0,0 l/m 0,0 km/h (0 Bft) S-SO 162 0 min 0,000 mm 0,7 UV-I 74 W/m 11,9 C 17,4 C 0,0 km/h (0 Bft)
26.09.2023 10:32 17,3 C 16,1 C 12,2 C 12,2 C 12,8 C 72 % 0 lf 32 cb 200 cb 154 cb 194 cb 1020,6 hPa 0,0 l/m 0,0 km/h (0 Bft) SO 134 0 min 0,000 mm 0,7 UV-I 76 W/m 12,2 C 17,3 C 0,0 km/h (0 Bft)
26.09.2023 10:30 17,2 C 16,1 C 12,2 C 12,2 C 12,8 C 71 % 0 lf 32 cb 200 cb 154 cb 194 cb 1020,6 hPa 0,0 l/m 0,0 km/h (0 Bft) SO 134 0 min 0,000 mm 0,7 UV-I 70 W/m 11,9 C 17,2 C 0,0 km/h (0 Bft)
26.09.2023 10:28 17,2 C 16,1 C 12,2 C 12,2 C 12,8 C 74 % 0 lf 32 cb 200 cb 155 cb 195 cb 1020,6 hPa 0,0 l/m 0,0 km/h (0 Bft) O 100 0 min 0,000 mm 0,7 UV-I 83 W/m 12,5 C 17,2 C 0,0 km/h (0 Bft)
26.09.2023 10:26 17,1 C 16,7 C 12,2 C 12,2 C 12,8 C 73 % 0 lf 32 cb 200 cb 155 cb 194 cb 1020,6 hPa 0,0 l/m 0,0 km/h (0 Bft) O 98 0 min 0,000 mm 0,6 UV-I 74 W/m 12,2 C 17,1 C 0,0 km/h (0 Bft)
26.09.2023 10:24 17,1 C 16,7 C 12,2 C 12,2 C 12,8 C 75 % 0 lf 32 cb 200 cb 155 cb 194 cb 1020,6 hPa 0,0 l/m 0,0 km/h (0 Bft) O 97 0 min 0,000 mm 0,6 UV-I 70 W/m 12,6 C 17,1 C 0,0 km/h (0 Bft)
26.09.2023 10:22 17,1 C 16,1 C 12,2 C 12,2 C 12,8 C 76 % 0 lf 32 cb 200 cb 155 cb 194 cb 1020,5 hPa 0,0 l/m 0,0 km/h (0 Bft) O 97 0 min 0,000 mm 0,6 UV-I 72 W/m 12,8 C 17,1 C 0,0 km/h (0 Bft)
26.09.2023 10:20 17,0 C 15,0 C 12,2 C 12,2 C 12,8 C 77 % 0 lf 31 cb 200 cb 155 cb 194 cb 1020,6 hPa 0,0 l/m 0,0 km/h (0 Bft) O 97 0 min 0,000 mm 0,6 UV-I 70 W/m 12,9 C 17,0 C 0,0 km/h (0 Bft)
26.09.2023 10:18 16,9 C 15,0 C 12,2 C 12,2 C 12,2 C 78 % 0 lf 31 cb 200 cb 155 cb 191 cb 1020,5 hPa 0,0 l/m 0,0 km/h (0 Bft) O 97 0 min 0,000 mm 0,6 UV-I 69 W/m 13,0 C 16,9 C 0,0 km/h (0 Bft)
26.09.2023 10:16 16,8 C 15,0 C 12,2 C 12,2 C 12,2 C 78 % 0 lf 31 cb 200 cb 155 cb 191 cb 1020,6 hPa 0,0 l/m 0,0 km/h (0 Bft) O 97 0 min 0,000 mm 0,6 UV-I 72 W/m 12,9 C 16,8 C 0,0 km/h (0 Bft)
26.09.2023 10:14 16,7 C 15,0 C 12,2 C 12,2 C 12,2 C 77 % 0 lf 31 cb 200 cb 155 cb 191 cb 1020,5 hPa 0,0 l/m 0,0 km/h (0 Bft) O 97 0 min 0,000 mm 0,5 UV-I 72 W/m 12,6 C 16,7 C 0,0 km/h (0 Bft)
26.09.2023 10:12 16,6 C 15,0 C 12,2 C 12,2 C 12,2 C 78 % 0 lf 31 cb 200 cb 155 cb 191 cb 1020,4 hPa 0,0 l/m 0,0 km/h (0 Bft) O 97 0 min 0,000 mm 0,5 UV-I 65 W/m 12,7 C 16,6 C 0,0 km/h (0 Bft)
26.09.2023 10:10 16,3 C 15,0 C 12,2 C 12,2 C 12,2 C 77 % 0 lf 31 cb 200 cb 155 cb 191 cb 1020,4 hPa 0,0 l/m 0,0 km/h (0 Bft) O 97 0 min 0,000 mm 0,5 UV-I 72 W/m 12,3 C 16,3 C 0,0 km/h (0 Bft)
26.09.2023 10:09 16,3 C 15,0 C 12,2 C 12,2 C 12,2 C 78 % 0 lf 31 cb 200 cb 155 cb 191 cb 1020,4 hPa 0,0 l/m 0,0 km/h (0 Bft) O 97 0 min 0,000 mm 0,5 UV-I 69 W/m 12,5 C 16,3 C 0,0 km/h (0 Bft)
26.09.2023 10:06 16,1 C 14,4 C 12,2 C 12,2 C 12,2 C 78 % 0 lf 31 cb 200 cb 155 cb 191 cb 1020,4 hPa 0,0 l/m 0,0 km/h (0 Bft) O 97 0 min 0,000 mm 0,5 UV-I 72 W/m 12,3 C 16,1 C 0,0 km/h (0 Bft)
26.09.2023 10:04 15,9 C 14,4 C 12,2 C 12,2 C 12,2 C 78 % 0 lf 31 cb 200 cb 155 cb 191 cb 1020,4 hPa 0,0 l/m 0,0 km/h (0 Bft) O 97 0 min 0,000 mm 0,5 UV-I 74 W/m 12,1 C 15,9 C 0,0 km/h (0 Bft)
26.09.2023 10:02 15,8 C 14,4 C 12,2 C 12,2 C 12,2 C 77 % 0 lf 31 cb 200 cb 155 cb 191 cb 1020,4 hPa 0,0 l/m 0,0 km/h (0 Bft) O 97 0 min 0,051 mm 0,5 UV-I 69 W/m 11,8 C 15,8 C 0,0 km/h (0 Bft)
26.09.2023 10:00 15,7 C 13,9 C 11,7 C 12,2 C 12,2 C 77 % 0 lf 31 cb 200 cb 155 cb 191 cb 1020,3 hPa 0,0 l/m 0,0 km/h (0 Bft) O 97 0 min 0,000 mm 0,0 UV-I 65 W/m 11,7 C 15,7 C 0,0 km/h (0 Bft)
26.09.2023 09:58 15,7 C 13,9 C 11,7 C 12,2 C 12,2 C 79 % 0 lf 31 cb 200 cb 155 cb 191 cb 1020,3 hPa 0,0 l/m 0,0 km/h (0 Bft) O 94 0 min 0,000 mm 0,0 UV-I 63 W/m 12,1 C 15,7 C 0,0 km/h (0 Bft)
26.09.2023 09:56 15,6 C 13,9 C 11,7 C 12,2 C 12,2 C 78 % 0 lf 31 cb 200 cb 155 cb 191 cb 1020,5 hPa 0,0 l/m 0,0 km/h (0 Bft) O 92 0 min 0,000 mm 0,0 UV-I 63 W/m 11,8 C 15,6 C 0,0 km/h (0 Bft)
26.09.2023 09:54 15,5 C 13,9 C 11,7 C 12,2 C 12,2 C 79 % 0 lf 31 cb 200 cb 155 cb 191 cb 1020,5 hPa 0,0 l/m 0,0 km/h (0 Bft) O 90 0 min 0,000 mm 0,0 UV-I 72 W/m 11,9 C 15,5 C 0,0 km/h (0 Bft)
26.09.2023 09:52 15,4 C 13,9 C 11,7 C 12,2 C 12,2 C 78 % 0 lf 31 cb 200 cb 155 cb 191 cb 1020,5 hPa 0,0 l/m 0,0 km/h (0 Bft) O-NO 70 0 min 0,000 mm 0,5 UV-I 86 W/m 11,6 C 15,4 C 0,0 km/h (0 Bft)
26.09.2023 09:50 15,3 C 13,9 C 11,7 C 12,2 C 12,2 C 79 % 0 lf 31 cb 200 cb 156 cb 191 cb 1020,4 hPa 0,0 l/m 0,0 km/h (0 Bft) O-NO 65 0 min 0,000 mm 0,5 UV-I 139 W/m 11,7 C 15,3 C 0,0 km/h (0 Bft)
26.09.2023 09:48 15,3 C 13,9 C 11,7 C 12,2 C 12,2 C 79 % 0 lf 31 cb 200 cb 156 cb 191 cb 1020,5 hPa 0,0 l/m 0,0 km/h (0 Bft) NO 43 0 min 0,000 mm 0,5 UV-I 113 W/m 11,7 C 15,3 C 0,0 km/h (0 Bft)
26.09.2023 09:46 15,2 C 14,4 C 11,7 C 12,2 C 12,2 C 79 % 0 lf 31 cb 200 cb 156 cb 191 cb 1020,4 hPa 0,0 l/m 0,0 km/h (0 Bft) N-NO 19 0 min 0,000 mm 0,0 UV-I 105 W/m 11,6 C 15,2 C 0,0 km/h (0 Bft)
26.09.2023 09:44 15,1 C 14,4 C 11,7 C 12,2 C 12,2 C 78 % 0 lf 31 cb 200 cb 156 cb 191 cb 1020,5 hPa 0,0 l/m 0,0 km/h (0 Bft) N 349 0 min 0,000 mm 0,0 UV-I 105 W/m 11,3 C 15,1 C 0,0 km/h (0 Bft)
26.09.2023 09:42 15,0 C 15,0 C 11,7 C 12,2 C 12,2 C 78 % 0 lf 32 cb 200 cb 156 cb 191 cb 1020,5 hPa 0,0 l/m 0,0 km/h (0 Bft) N-NW 348 0 min 0,000 mm 0,0 UV-I 83 W/m 11,2 C 15,0 C 0,0 km/h (0 Bft)
26.09.2023 09:40 15,0 C 13,9 C 11,7 C 12,2 C 12,2 C 77 % 0 lf 31 cb 200 cb 156 cb 191 cb 1020,5 hPa 0,0 l/m 0,0 km/h (0 Bft) N-NW 348 0 min 0,000 mm 0,0 UV-I 65 W/m 11,0 C 15,0 C 0,0 km/h (0 Bft)
26.09.2023 09:38 15,0 C 13,9 C 11,7 C 12,2 C 12,2 C 78 % 0 lf 31 cb 200 cb 156 cb 191 cb 1020,5 hPa 0,0 l/m 0,0 km/h (0 Bft) N-NW 347 0 min 0,000 mm 0,0 UV-I 79 W/m 11,2 C 15,0 C 0,0 km/h (0 Bft)
26.09.2023 09:36 15,0 C 13,9 C 11,7 C 12,2 C 12,2 C 77 % 0 lf 31 cb 200 cb 156 cb 191 cb 1020,5 hPa 0,0 l/m 0,0 km/h (0 Bft) N-NW 344 0 min 0,000 mm 0,0 UV-I 60 W/m 11,0 C 15,0 C 0,0 km/h (0 Bft)
26.09.2023 09:34 15,0 C 13,9 C 11,7 C 12,2 C 12,2 C 78 % 0 lf 31 cb 200 cb 156 cb 191 cb 1020,5 hPa 0,0 l/m 0,0 km/h (0 Bft) N-NW 343 0 min 0,000 mm 0,0 UV-I 60 W/m 11,2 C 15,0 C 0,0 km/h (0 Bft)
26.09.2023 09:32 15,0 C 14,4 C 11,7 C 12,2 C 12,2 C 78 % 0 lf 32 cb 200 cb 156 cb 191 cb 1020,5 hPa 0,0 l/m 0,0 km/h (0 Bft) N-NW 341 0 min 0,000 mm 0,0 UV-I 58 W/m 11,2 C 15,0 C 0,0 km/h (0 Bft)
26.09.2023 09:30 15,0 C 15,0 C 11,7 C 12,2 C 12,2 C 78 % 0 lf 32 cb 200 cb 156 cb 191 cb 1020,6 hPa 0,0 l/m 0,0 km/h (0 Bft) N-NW 340 0 min 0,000 mm 0,0 UV-I 67 W/m 11,2 C 15,0 C 0,0 km/h (0 Bft)
26.09.2023 09:28 15,0 C 15,0 C 11,7 C 12,2 C 12,2 C 78 % 0 lf 32 cb 200 cb 156 cb 191 cb 1020,6 hPa 0,0 l/m 0,0 km/h (0 Bft) N-NW 340 0 min 0,000 mm 0,0 UV-I 60 W/m 11,2 C 15,0 C 0,0 km/h (0 Bft)
26.09.2023 09:26 14,9 C 16,1 C 11,7 C 12,2 C 12,2 C 79 % 0 lf 33 cb 200 cb 156 cb 191 cb 1020,6 hPa 0,0 l/m 0,0 km/h (0 Bft) N-NW 340 0 min 0,000 mm 0,0 UV-I 54 W/m 11,3 C 14,9 C 0,0 km/h (0 Bft)
26.09.2023 09:24 14,8 C 16,7 C 11,7 C 12,2 C 12,2 C 79 % 0 lf 33 cb 200 cb 156 cb 191 cb 1020,7 hPa 0,0 l/m 0,0 km/h (0 Bft) N-NW 339 0 min 0,000 mm 0,0 UV-I 58 W/m 11,2 C 14,8 C 0,0 km/h (0 Bft)
26.09.2023 09:22 14,8 C 16,7 C 11,7 C 12,2 C 12,2 C 79 % 0 lf 33 cb 200 cb 156 cb 191 cb 1020,6 hPa 0,0 l/m 0,0 km/h (0 Bft) N-NW 339 0 min 0,000 mm 0,0 UV-I 54 W/m 11,2 C 14,8 C 0,0 km/h (0 Bft)
26.09.2023 09:20 14,8 C 16,7 C 11,7 C 12,2 C 12,2 C 79 % 0 lf 33 cb 200 cb 156 cb 191 cb 1020,6 hPa 0,0 l/m 0,0 km/h (0 Bft) N-NW 339 0 min 0,000 mm 0,0 UV-I 95 W/m 11,2 C 14,8 C 0,0 km/h (0 Bft)
26.09.2023 09:18 14,8 C 16,1 C 11,7 C 12,2 C 12,2 C 79 % 0 lf 33 cb 200 cb 156 cb 191 cb 1020,5 hPa 0,0 l/m 0,0 km/h (0 Bft) N-NW 339 0 min 0,000 mm 0,0 UV-I 83 W/m 11,2 C 14,8 C 0,0 km/h (0 Bft)
26.09.2023 09:16 14,7 C 15,6 C 11,7 C 12,2 C 12,2 C 79 % 0 lf 33 cb 200 cb 156 cb 191 cb 1020,7 hPa 0,0 l/m 0,0 km/h (0 Bft) N-NW 339 0 min 0,000 mm 0,0 UV-I 54 W/m 11,1 C 14,7 C 0,0 km/h (0 Bft)
26.09.2023 09:14 14,7 C 14,4 C 11,7 C 12,2 C 12,2 C 78 % 0 lf 32 cb 200 cb 156 cb 191 cb 1020,6 hPa 0,0 l/m 0,0 km/h (0 Bft) N-NW 339 0 min 0,000 mm 0,0 UV-I 53 W/m 10,9 C 14,7 C 0,0 km/h (0 Bft)
26.09.2023 09:12 14,6 C 13,9 C 11,7 C 12,2 C 12,2 C 78 % 0 lf 32 cb 200 cb 156 cb 191 cb 1020,6 hPa 0,0 l/m 0,0 km/h (0 Bft) N-NW 339 0 min 0,000 mm 0,0 UV-I 56 W/m 10,8 C 14,6 C 0,0 km/h (0 Bft)
26.09.2023 09:10 14,4 C 13,3 C 11,7 C 12,2 C 12,2 C 77 % 0 lf 31 cb 200 cb 156 cb 191 cb 1020,6 hPa 0,0 l/m 0,0 km/h (0 Bft) N-NW 339 0 min 0,000 mm 0,0 UV-I 79 W/m 10,4 C 14,4 C 0,0 km/h (0 Bft)
26.09.2023 09:08 14,3 C 12,8 C 11,7 C 12,2 C 12,2 C 78 % 0 lf 31 cb 200 cb 156 cb 191 cb 1020,6 hPa 0,0 l/m 0,0 km/h (0 Bft) N-NW 333 0 min 0,000 mm 0,0 UV-I 77 W/m 10,5 C 14,3 C 0,0 km/h (0 Bft)
26.09.2023 09:06 14,2 C 12,2 C 11,7 C 12,2 C 12,2 C 78 % 0 lf 30 cb 200 cb 156 cb 191 cb 1020,7 hPa 0,0 l/m 0,0 km/h (0 Bft) N-NW 333 0 min 0,000 mm 0,0 UV-I 81 W/m 10,4 C 14,2 C 0,0 km/h (0 Bft)
26.09.2023 09:04 13,9 C 12,2 C 11,7 C 12,2 C 12,2 C 79 % 0 lf 31 cb 200 cb 156 cb 191 cb 1020,6 hPa 0,0 l/m 0,0 km/h (0 Bft) N-NW 333 0 min 0,000 mm 0,0 UV-I 56 W/m 10,3 C 13,9 C 0,0 km/h (0 Bft)
26.09.2023 09:02 13,8 C 11,7 C 11,7 C 12,2 C 12,2 C 81 % 0 lf 30 cb 200 cb 156 cb 191 cb 1020,5 hPa 0,0 l/m 0,0 km/h (0 Bft) N-NW 331 0 min 0,025 mm 0,0 UV-I 56 W/m 10,6 C 13,8 C 0,0 km/h (0 Bft)
26.09.2023 09:00 13,8 C 11,7 C 11,7 C 12,2 C 12,2 C 81 % 0 lf 30 cb 200 cb 156 cb 191 cb 1020,5 hPa 0,0 l/m 0,0 km/h (0 Bft) N-NW 331 0 min 0,000 mm 0,0 UV-I 54 W/m 10,6 C 13,8 C 0,0 km/h (0 Bft)
26.09.2023 08:58 13,7 C 11,7 C 11,7 C 12,2 C 12,2 C 81 % 0 lf 30 cb 200 cb 156 cb 191 cb 1020,6 hPa 0,0 l/m 0,0 km/h (0 Bft) N-NW 331 0 min 0,000 mm 0,0 UV-I 53 W/m 10,5 C 13,7 C 0,0 km/h (0 Bft)
26.09.2023 08:56 13,6 C 11,1 C 11,7 C 12,2 C 12,2 C 81 % 0 lf 30 cb 200 cb 157 cb 191 cb 1020,7 hPa 0,0 l/m 0,0 km/h (0 Bft) N-NW 331 0 min 0,000 mm 0,0 UV-I 56 W/m 10,4 C 13,6 C 0,0 km/h (0 Bft)
26.09.2023 08:54 13,6 C 11,1 C 11,7 C 12,2 C 12,2 C 82 % 0 lf 30 cb 200 cb 157 cb 191 cb 1020,7 hPa 0,0 l/m 0,0 km/h (0 Bft) N-NW 331 0 min 0,000 mm 0,0 UV-I 56 W/m 10,6 C 13,6 C 0,0 km/h (0 Bft)
26.09.2023 08:52 13,6 C 11,1 C 11,7 C 12,2 C 12,2 C 82 % 0 lf 30 cb 200 cb 157 cb 191 cb 1020,7 hPa 0,0 l/m 0,0 km/h (0 Bft) N-NW 331 0 min 0,000 mm 0,0 UV-I 46 W/m 10,6 C 13,6 C 0,0 km/h (0 Bft)
26.09.2023 08:50 13,4 C 11,1 C 11,7 C 11,7 C 12,2 C 82 % 0 lf 30 cb 200 cb 154 cb 191 cb 1020,7 hPa 0,0 l/m 0,0 km/h (0 Bft) N-NW 331 0 min 0,000 mm 0,0 UV-I 56 W/m 10,4 C 13,4 C 0,0 km/h (0 Bft)
26.09.2023 08:48 13,4 C 11,1 C 11,7 C 11,7 C 12,2 C 82 % 0 lf 30 cb 200 cb 154 cb 191 cb 1020,6 hPa 0,0 l/m 0,0 km/h (0 Bft) N-NW 331 0 min 0,000 mm 0,0 UV-I 60 W/m 10,4 C 13,4 C 0,0 km/h (0 Bft)
26.09.2023 08:46 13,4 C 11,1 C 11,7 C 11,7 C 12,2 C 81 % 0 lf 31 cb 200 cb 154 cb 191 cb 1020,6 hPa 0,0 l/m 0,0 km/h (0 Bft) N-NW 331 0 min 0,000 mm 0,0 UV-I 76 W/m 10,2 C 13,4 C 0,0 km/h (0 Bft)
26.09.2023 08:44 13,3 C 11,1 C 11,7 C 11,7 C 12,2 C 82 % 0 lf 31 cb 200 cb 154 cb 191 cb 1020,6 hPa 0,0 l/m 0,0 km/h (0 Bft) N-NW 331 0 min 0,000 mm 0,0 UV-I 74 W/m 10,3 C 13,3 C 0,0 km/h (0 Bft)
26.09.2023 08:42 13,1 C 10,6 C 11,7 C 11,7 C 12,2 C 82 % 0 lf 30 cb 200 cb 154 cb 191 cb 1020,6 hPa 0,0 l/m 0,0 km/h (0 Bft) N-NW 331 0 min 0,000 mm 0,0 UV-I 56 W/m 10,1 C 13,1 C 0,0 km/h (0 Bft)
26.09.2023 08:40 12,9 C 10,6 C 11,7 C 11,7 C 12,2 C 83 % 0 lf 30 cb 200 cb 154 cb 191 cb 1020,6 hPa 0,0 l/m 0,0 km/h (0 Bft) N-NW 331 0 min 0,000 mm 0,0 UV-I 65 W/m 10,1 C 12,9 C 0,0 km/h (0 Bft)
26.09.2023 08:38 12,8 C 10,0 C 11,7 C 11,7 C 12,2 C 83 % 0 lf 30 cb 200 cb 154 cb 191 cb 1020,6 hPa 0,0 l/m 0,0 km/h (0 Bft) N-NW 331 0 min 0,000 mm 0,0 UV-I 62 W/m 10,0 C 12,8 C 0,0 km/h (0 Bft)
26.09.2023 08:36 12,7 C 10,0 C 11,7 C 11,7 C 12,2 C 83 % 0 lf 30 cb 200 cb 154 cb 191 cb 1020,6 hPa 0,0 l/m 0,0 km/h (0 Bft) N-NW 331 0 min 0,000 mm 0,0 UV-I 49 W/m 9,9 C 12,7 C 0,0 km/h (0 Bft)
26.09.2023 08:34 12,6 C 10,0 C 11,7 C 11,7 C 12,2 C 83 % 0 lf 30 cb 200 cb 154 cb 191 cb 1020,6 hPa 0,0 l/m 0,0 km/h (0 Bft) N-NW 331 0 min 0,000 mm 0,0 UV-I 47 W/m 9,8 C 12,6 C 0,0 km/h (0 Bft)
26.09.2023 08:32 12,6 C 10,0 C 11,7 C 11,7 C 12,2 C 83 % 0 lf 30 cb 200 cb 154 cb 191 cb 1020,6 hPa 0,0 l/m 0,0 km/h (0 Bft) N-NW 331 0 min 0,000 mm 0,0 UV-I 40 W/m 9,8 C 12,6 C 0,0 km/h (0 Bft)
26.09.2023 08:30 12,4 C 9,4 C 11,7 C 11,7 C 12,2 C 84 % 0 lf 30 cb 200 cb 154 cb 191 cb 1020,7 hPa 0,0 l/m 0,0 km/h (0 Bft) N-NW 331 0 min 0,000 mm 0,0 UV-I 39 W/m 9,8 C 12,4 C 0,0 km/h (0 Bft)
26.09.2023 08:28 12,3 C 9,4 C 11,7 C 11,7 C 12,2 C 84 % 0 lf 30 cb 200 cb 154 cb 191 cb 1020,7 hPa 0,0 l/m 0,0 km/h (0 Bft) N-NW 331 0 min 0,000 mm 0,0 UV-I 44 W/m 9,7 C 12,3 C 0,0 km/h (0 Bft)
26.09.2023 08:26 12,3 C 9,4 C 11,7 C 11,7 C 12,2 C 84 % 0 lf 30 cb 200 cb 154 cb 191 cb 1020,7 hPa 0,0 l/m 0,0 km/h (0 Bft) N-NW 331 0 min 0,000 mm 0,0 UV-I 42 W/m 9,7 C 12,3 C 0,0 km/h (0 Bft)
26.09.2023 08:24 12,2 C 9,4 C 11,7 C 11,7 C 12,2 C 84 % 0 lf 30 cb 200 cb 154 cb 191 cb 1020,7 hPa 0,0 l/m 0,0 km/h (0 Bft) N-NW 331 0 min 0,000 mm 0,0 UV-I 42 W/m 9,6 C 12,2 C 0,0 km/h (0 Bft)
26.09.2023 08:22 12,2 C 9,4 C 11,7 C 11,7 C 12,2 C 84 % 0 lf 30 cb 200 cb 154 cb 191 cb 1020,7 hPa 0,0 l/m 0,0 km/h (0 Bft) N-NW 331 0 min 0,000 mm 0,0 UV-I 47 W/m 9,6 C 12,2 C 0,0 km/h (0 Bft)
26.09.2023 08:20 12,1 C 9,4 C 11,1 C 11,7 C 12,2 C 84 % 0 lf 30 cb 200 cb 154 cb 191 cb 1020,7 hPa 0,0 l/m 0,0 km/h (0 Bft) N-NW 331 0 min 0,000 mm 0,0 UV-I 47 W/m 9,5 C 12,1 C 0,0 km/h (0 Bft)
26.09.2023 08:18 12,1 C 9,4 C 11,1 C 11,7 C 12,2 C 85 % 0 lf 30 cb 200 cb 154 cb 191 cb 1020,7 hPa 0,0 l/m 0,0 km/h (0 Bft) N-NW 331 0 min 0,000 mm 0,0 UV-I 47 W/m 9,7 C 12,1 C 0,0 km/h (0 Bft)
26.09.2023 08:16 12,0 C 9,4 C 11,1 C 11,7 C 12,2 C 85 % 0 lf 30 cb 200 cb 154 cb 191 cb 1020,6 hPa 0,0 l/m 0,0 km/h (0 Bft) N-NW 331 0 min 0,000 mm 0,0 UV-I 47 W/m 9,6 C 12,0 C 0,0 km/h (0 Bft)
26.09.2023 08:14 11,8 C 9,4 C 11,1 C 11,7 C 12,2 C 85 % 0 lf 30 cb 200 cb 154 cb 191 cb 1020,7 hPa 0,0 l/m 0,0 km/h (0 Bft) N-NW 331 0 min 0,000 mm 0,0 UV-I 47 W/m 9,4 C 11,8 C 0,0 km/h (0 Bft)
26.09.2023 08:12 11,7 C 8,9 C 11,1 C 11,7 C 12,8 C 86 % 0 lf 30 cb 200 cb 154 cb 194 cb 1020,7 hPa 0,0 l/m 0,0 km/h (0 Bft) N-NW 331 0 min 0,000 mm 0,0 UV-I 46 W/m 9,4 C 11,7 C 0,0 km/h (0 Bft)
26.09.2023 08:10 11,6 C 8,9 C 11,1 C 11,7 C 12,8 C 86 % 0 lf 30 cb 200 cb 154 cb 194 cb 1020,8 hPa 0,0 l/m 0,0 km/h (0 Bft) N-NW 331 0 min 0,000 mm 0,0 UV-I 46 W/m 9,3 C 11,6 C 0,0 km/h (0 Bft)
26.09.2023 08:08 11,4 C 8,9 C 11,1 C 11,7 C 12,8 C 87 % 0 lf 30 cb 200 cb 154 cb 194 cb 1020,7 hPa 0,0 l/m 0,0 km/h (0 Bft) N-NW 331 0 min 0,000 mm 0,0 UV-I 44 W/m 9,3 C 11,4 C 0,0 km/h (0 Bft)
26.09.2023 08:06 11,3 C 8,9 C 11,1 C 11,7 C 12,8 C 87 % 0 lf 30 cb 200 cb 154 cb 194 cb 1020,8 hPa 0,0 l/m 0,0 km/h (0 Bft) N-NW 331 0 min 0,000 mm 0,0 UV-I 44 W/m 9,2 C 11,3 C 0,0 km/h (0 Bft)
26.09.2023 08:04 11,2 C 8,9 C 11,1 C 11,7 C 12,8 C 87 % 0 lf 30 cb 200 cb 154 cb 194 cb 1020,8 hPa 0,0 l/m 0,0 km/h (0 Bft) N-NW 331 0 min 0,000 mm 0,0 UV-I 42 W/m 9,1 C 11,2 C 0,0 km/h (0 Bft)
26.09.2023 08:02 11,1 C 8,9 C 11,1 C 11,7 C 12,8 C 87 % 0 lf 30 cb 200 cb 154 cb 194 cb 1020,6 hPa 0,0 l/m 0,0 km/h (0 Bft) N-NW 331 0 min 0,000 mm 0,0 UV-I 42 W/m 9,0 C 11,1 C 0,0 km/h (0 Bft)
26.09.2023 08:00 10,9 C 8,3 C 11,1 C 11,7 C 12,8 C 87 % 0 lf 29 cb 200 cb 154 cb 194 cb 1020,8 hPa 0,0 l/m 0,0 km/h (0 Bft) N-NW 331 0 min 0,000 mm 0,0 UV-I 40 W/m 8,8 C 10,9 C 0,0 km/h (0 Bft)
26.09.2023 07:58 10,9 C 8,3 C 11,1 C 11,7 C 12,8 C 87 % 0 lf 29 cb 200 cb 154 cb 194 cb 1020,8 hPa 0,0 l/m 0,0 km/h (0 Bft) N-NW 331 0 min 0,000 mm 0,0 UV-I 39 W/m 8,8 C 10,9 C 0,0 km/h (0 Bft)
26.09.2023 07:56 10,9 C 8,3 C 11,1 C 11,7 C 12,8 C 87 % 0 lf 29 cb 200 cb 154 cb 194 cb 1020,7 hPa 0,0 l/m 0,0 km/h (0 Bft) N-NW 331 2 min 0,000 mm 0,0 UV-I 37 W/m 8,8 C 10,9 C 0,0 km/h (0 Bft)
26.09.2023 07:54 10,9 C 7,8 C 11,1 C 11,7 C 12,8 C 87 % 0 lf 29 cb 200 cb 154 cb 194 cb 1020,7 hPa 0,0 l/m 0,0 km/h (0 Bft) N-NW 331 0 min 0,000 mm 0,0 UV-I 33 W/m 8,8 C 10,9 C 0,0 km/h (0 Bft)
26.09.2023 07:52 10,9 C 7,8 C 11,1 C 11,7 C 12,8 C 86 % 0 lf 29 cb 200 cb 154 cb 194 cb 1020,7 hPa 0,0 l/m 0,0 km/h (0 Bft) N-NW 331 2 min 0,000 mm 0,0 UV-I 33 W/m 8,7 C 10,9 C 0,0 km/h (0 Bft)
26.09.2023 07:50 11,0 C 7,8 C 11,1 C 11,7 C 12,8 C 86 % 0 lf 29 cb 200 cb 154 cb 194 cb 1020,7 hPa 0,0 l/m 0,0 km/h (0 Bft) N-NW 331 2 min 0,000 mm 0,0 UV-I 32 W/m 8,7 C 11,0 C 0,0 km/h (0 Bft)
26.09.2023 07:48 11,1 C 7,8 C 11,1 C 11,7 C 12,8 C 85 % 0 lf 29 cb 200 cb 154 cb 194 cb 1020,8 hPa 0,0 l/m 0,0 km/h (0 Bft) N-NW 331 2 min 0,000 mm 0,0 UV-I 28 W/m 8,7 C 11,1 C 0,0 km/h (0 Bft)
26.09.2023 07:46 11,1 C 7,8 C 11,1 C 11,7 C 12,8 C 85 % 0 lf 29 cb 200 cb 154 cb 194 cb 1020,7 hPa 0,0 l/m 0,0 km/h (0 Bft) N-NW 331 1 min 0,000 mm 0,0 UV-I 25 W/m 8,7 C 11,1 C 0,0 km/h (0 Bft)
26.09.2023 07:45 11,1 C 7,8 C 11,1 C 11,7 C 12,8 C 85 % 0 lf 29 cb 200 cb 154 cb 194 cb 1020,8 hPa 0,0 l/m 0,0 km/h (0 Bft) N-NW 331 1 min 0,000 mm 0,0 UV-I 25 W/m 8,7 C 11,1 C 0,0 km/h (0 Bft)
26.09.2023 07:44 11,2 C 7,8 C 11,1 C 11,7 C 12,8 C 85 % 0 lf 29 cb 200 cb 154 cb 194 cb 1020,8 hPa 0,0 l/m 0,0 km/h (0 Bft) N-NW 331 4 min 0,000 mm 0,0 UV-I 25 W/m 8,8 C 11,2 C 0,0 km/h (0 Bft)
26.09.2023 07:40 11,3 C 7,8 C 11,1 C 11,7 C 12,8 C 85 % 0 lf 29 cb 200 cb 154 cb 194 cb 1020,9 hPa 0,0 l/m 0,0 km/h (0 Bft) N-NW 331 2 min 0,000 mm 0,0 UV-I 19 W/m 8,9 C 11,3 C 0,0 km/h (0 Bft)
26.09.2023 07:38 11,3 C 7,8 C 11,1 C 11,7 C 12,8 C 85 % 0 lf 29 cb 200 cb 154 cb 194 cb 1020,8 hPa 0,0 l/m 0,0 km/h (0 Bft) N-NW 331 2 min 0,000 mm 0,0 UV-I 18 W/m 8,9 C 11,3 C 0,0 km/h (0 Bft)
26.09.2023 07:36 11,3 C 7,8 C 11,1 C 11,7 C 12,8 C 85 % 0 lf 29 cb 200 cb 154 cb 194 cb 1020,8 hPa 0,0 l/m 0,0 km/h (0 Bft) N-NW 331 0 min 0,000 mm 0,0 UV-I 12 W/m 8,9 C 11,3 C 0,0 km/h (0 Bft)
26.09.2023 07:34 11,3 C 7,8 C 11,1 C 11,7 C 12,8 C 85 % 0 lf 29 cb 200 cb 154 cb 194 cb 1020,9 hPa 0,0 l/m 0,0 km/h (0 Bft) N-NW 331 0 min 0,000 mm 0,0 UV-I 11 W/m 8,9 C 11,3 C 0,0 km/h (0 Bft)
26.09.2023 07:32 11,3 C 7,8 C 11,1 C 12,2 C 12,8 C 85 % 0 lf 29 cb 200 cb 157 cb 194 cb 1020,8 hPa 0,0 l/m 0,0 km/h (0 Bft) N-NW 331 0 min 0,000 mm 0,0 UV-I 11 W/m 8,9 C 11,3 C 0,0 km/h (0 Bft)
26.09.2023 07:30 11,3 C 7,8 C 11,1 C 12,2 C 12,8 C 86 % 0 lf 29 cb 200 cb 157 cb 194 cb 1020,9 hPa 0,0 l/m 0,0 km/h (0 Bft) N-NW 331 0 min 0,000 mm 0,0 UV-I 7 W/m 9,0 C 11,3 C 0,0 km/h (0 Bft)
26.09.2023 07:28 11,3 C 7,8 C 11,1 C 12,2 C 12,8 C 86 % 0 lf 29 cb 200 cb 157 cb 194 cb 1020,8 hPa 0,0 l/m 0,0 km/h (0 Bft) N-NW 331 0 min 0,000 mm 0,0 UV-I 7 W/m 9,0 C 11,3 C 0,0 km/h (0 Bft)
26.09.2023 07:26 11,2 C 7,8 C 11,1 C 12,2 C 12,8 C 86 % 0 lf 29 cb 200 cb 157 cb 194 cb 1020,8 hPa 0,0 l/m 0,0 km/h (0 Bft) N-NW 331 0 min 0,000 mm 0,0 UV-I 5 W/m 8,9 C 11,2 C 0,0 km/h (0 Bft)
26.09.2023 07:24 11,2 C 7,2 C 11,1 C 12,2 C 12,8 C 86 % 0 lf 29 cb 200 cb 157 cb 194 cb 1020,8 hPa 0,0 l/m 0,0 km/h (0 Bft) N-NW 331 0 min 0,000 mm 0,0 UV-I 5 W/m 8,9 C 11,2 C 0,0 km/h (0 Bft)
26.09.2023 07:22 11,2 C 7,2 C 11,1 C 12,2 C 12,8 C 86 % 0 lf 29 cb 200 cb 157 cb 194 cb 1020,8 hPa 0,0 l/m 0,0 km/h (0 Bft) N-NW 331 0 min 0,000 mm 0,0 UV-I 5 W/m 8,9 C 11,2 C 0,0 km/h (0 Bft)
26.09.2023 07:20 11,2 C 7,2 C 11,1 C 12,2 C 12,8 C 86 % 0 lf 29 cb 200 cb 157 cb 194 cb 1020,8 hPa 0,0 l/m 0,0 km/h (0 Bft) N-NW 331 0 min 0,000 mm 0,0 UV-I 0 W/m 8,9 C 11,2 C 0,0 km/h (0 Bft)
26.09.2023 07:18 11,2 C 7,2 C 11,1 C 12,2 C 12,8 C 86 % 0 lf 29 cb 200 cb 157 cb 194 cb 1020,7 hPa 0,0 l/m 0,0 km/h (0 Bft) N-NW 331 0 min 0,000 mm 0,0 UV-I 0 W/m 8,9 C 11,2 C 0,0 km/h (0 Bft)
26.09.2023 07:16 11,2 C 7,2 C 11,1 C 12,2 C 12,8 C 86 % 0 lf 29 cb 200 cb 157 cb 194 cb 1020,8 hPa 0,0 l/m 0,0 km/h (0 Bft) N-NW 331 0 min 0,000 mm 0,0 UV-I 0 W/m 8,9 C 11,2 C 0,0 km/h (0 Bft)
26.09.2023 07:14 11,2 C 7,2 C 11,1 C 12,2 C 12,8 C 87 % 0 lf 29 cb 200 cb 157 cb 194 cb 1020,8 hPa 0,0 l/m 0,0 km/h (0 Bft) N-NW 331 0 min 0,000 mm 0,0 UV-I 0 W/m 9,1 C 11,2 C 0,0 km/h (0 Bft)
26.09.2023 07:12 11,2 C 7,2 C 11,1 C 12,2 C 12,8 C 87 % 0 lf 29 cb 200 cb 157 cb 194 cb 1020,8 hPa 0,0 l/m 0,0 km/h (0 Bft) N-NW 331 0 min 0,000 mm 0,0 UV-I 0 W/m 9,1 C 11,2 C 0,0 km/h (0 Bft)
26.09.2023 07:10 11,1 C 7,2 C 11,1 C 12,2 C 12,8 C 87 % 0 lf 29 cb 200 cb 157 cb 194 cb 1020,8 hPa 0,0 l/m 0,0 km/h (0 Bft) N-NW 331 0 min 0,000 mm 0,0 UV-I 0 W/m 9,0 C 11,1 C 0,0 km/h (0 Bft)
26.09.2023 07:08 11,1 C 7,2 C 11,1 C 12,2 C 12,8 C 87 % 0 lf 29 cb 200 cb 157 cb 194 cb 1020,9 hPa 0,0 l/m 0,0 km/h (0 Bft) N-NW 331 0 min 0,000 mm 0,0 UV-I 0 W/m 9,0 C 11,1 C 0,0 km/h (0 Bft)
26.09.2023 07:06 10,9 C 7,2 C 11,1 C 12,2 C 12,8 C 87 % 0 lf 29 cb 200 cb 157 cb 194 cb 1020,9 hPa 0,0 l/m 0,0 km/h (0 Bft) N-NW 331 0 min 0,000 mm 0,0 UV-I 0 W/m 8,8 C 10,9 C 0,0 km/h (0 Bft)
26.09.2023 07:04 10,9 C 7,2 C 11,7 C 12,2 C 12,8 C 87 % 0 lf 29 cb 200 cb 157 cb 194 cb 1020,9 hPa 0,0 l/m 0,0 km/h (0 Bft) N-NW 331 0 min 0,000 mm 0,0 UV-I 0 W/m 8,8 C 10,9 C 0,0 km/h (0 Bft)
26.09.2023 07:02 10,9 C 7,2 C 11,7 C 12,2 C 12,8 C 87 % 0 lf 29 cb 200 cb 157 cb 194 cb 1020,8 hPa 0,0 l/m 0,0 km/h (0 Bft) N-NW 331 0 min 0,000 mm 0,0 UV-I 0 W/m 8,8 C 10,9 C 0,0 km/h (0 Bft)
26.09.2023 07:01 10,9 C 7,2 C 11,7 C 12,2 C 12,8 C 88 % 0 lf 29 cb 200 cb 157 cb 194 cb 1020,8 hPa 0,0 l/m 0,0 km/h (0 Bft) N-NW 331 0 min 0,000 mm 0,0 UV-I 0 W/m 9,0 C 10,9 C 0,0 km/h (0 Bft)
26.09.2023 06:58 10,8 C 7,2 C 11,7 C 12,2 C 12,8 C 88 % 0 lf 29 cb 200 cb 157 cb 194 cb 1020,9 hPa 0,0 l/m 0,0 km/h (0 Bft) N-NW 331 0 min 0,000 mm 0,0 UV-I 0 W/m 8,9 C 10,8 C 0,0 km/h (0 Bft)
26.09.2023 06:56 10,8 C 7,2 C 11,7 C 12,2 C 12,8 C 88 % 0 lf 29 cb 200 cb 157 cb 194 cb 1020,7 hPa 0,0 l/m 0,0 km/h (0 Bft) N-NW 331 0 min 0,000 mm 0,0 UV-I 0 W/m 8,9 C 10,8 C 0,0 km/h (0 Bft)
26.09.2023 06:54 10,8 C 7,2 C 11,7 C 12,2 C 12,8 C 88 % 0 lf 29 cb 200 cb 157 cb 194 cb 1020,8 hPa 0,0 l/m 0,0 km/h (0 Bft) N-NW 331 0 min 0,000 mm 0,0 UV-I 0 W/m 8,9 C 10,8 C 0,0 km/h (0 Bft)
26.09.2023 06:52 10,7 C 7,2 C 11,7 C 12,2 C 12,8 C 88 % 0 lf 29 cb 200 cb 157 cb 194 cb 1020,7 hPa 0,0 l/m 0,0 km/h (0 Bft) N-NW 331 0 min 0,000 mm 0,0 UV-I 0 W/m 8,8 C 10,7 C 0,0 km/h (0 Bft)
26.09.2023 06:50 10,7 C 7,2 C 11,7 C 12,2 C 12,8 C 88 % 0 lf 29 cb 200 cb 157 cb 194 cb 1020,8 hPa 0,0 l/m 0,0 km/h (0 Bft) N-NW 331 0 min 0,000 mm 0,0 UV-I 0 W/m 8,8 C 10,7 C 0,0 km/h (0 Bft)
26.09.2023 06:48 10,7 C 7,2 C 11,7 C 12,2 C 12,8 C 89 % 0 lf 29 cb 200 cb 157 cb 194 cb 1020,8 hPa 0,0 l/m 0,0 km/h (0 Bft) N-NW 331 0 min 0,000 mm 0,0 UV-I 0 W/m 9,0 C 10,7 C 0,0 km/h (0 Bft)
26.09.2023 06:46 10,6 C 7,2 C 11,7 C 12,2 C 12,8 C 89 % 0 lf 29 cb 200 cb 157 cb 194 cb 1020,8 hPa 0,0 l/m 0,0 km/h (0 Bft) N-NW 331 0 min 0,000 mm 0,0 UV-I 0 W/m 8,9 C 10,6 C 0,0 km/h (0 Bft)
26.09.2023 06:44 10,6 C 7,2 C 11,7 C 12,2 C 12,8 C 89 % 0 lf 29 cb 200 cb 157 cb 194 cb 1020,8 hPa 0,0 l/m 0,0 km/h (0 Bft) N-NW 331 0 min 0,000 mm 0,0 UV-I 0 W/m 8,9 C 10,6 C 0,0 km/h (0 Bft)
26.09.2023 06:42 10,6 C 7,2 C 11,7 C 12,2 C 12,8 C 89 % 0 lf 29 cb 200 cb 157 cb 194 cb 1020,8 hPa 0,0 l/m 0,0 km/h (0 Bft) N-NW 331 0 min 0,000 mm 0,0 UV-I 0 W/m 8,9 C 10,6 C 0,0 km/h (0 Bft)
26.09.2023 06:40 10,6 C 7,2 C 11,7 C 12,2 C 12,8 C 89 % 0 lf 29 cb 200 cb 157 cb 194 cb 1020,9 hPa 0,0 l/m 0,0 km/h (0 Bft) N-NW 331 0 min 0,000 mm 0,0 UV-I 0 W/m 8,9 C 10,6 C 0,0 km/h (0 Bft)
26.09.2023 06:38 10,6 C 7,2 C 11,7 C 12,2 C 12,8 C 88 % 0 lf 29 cb 200 cb 157 cb 194 cb 1020,8 hPa 0,0 l/m 0,0 km/h (0 Bft) N-NW 331 0 min 0,000 mm 0,0 UV-I 0 W/m 8,7 C 10,6 C 0,0 km/h (0 Bft)
26.09.2023 06:36 10,6 C 7,2 C 11,7 C 12,2 C 12,8 C 88 % 0 lf 29 cb 200 cb 157 cb 194 cb 1020,8 hPa 0,0 l/m 0,0 km/h (0 Bft) N-NW 331 0 min 0,000 mm 0,0 UV-I 0 W/m 8,7 C 10,6 C 0,0 km/h (0 Bft)
26.09.2023 06:34 10,7 C 7,2 C 11,7 C 12,2 C 12,8 C 88 % 0 lf 29 cb 200 cb 157 cb 194 cb 1020,9 hPa 0,0 l/m 0,0 km/h (0 Bft) N-NW 331 0 min 0,000 mm 0,0 UV-I 0 W/m 8,8 C 10,7 C 0,0 km/h (0 Bft)
26.09.2023 06:32 10,8 C 7,2 C 11,7 C 12,2 C 12,8 C 88 % 0 lf 29 cb 200 cb 157 cb 194 cb 1020,9 hPa 0,0 l/m 0,0 km/h (0 Bft) N-NW 331 0 min 0,000 mm 0,0 UV-I 0 W/m 8,9 C 10,8 C 0,0 km/h (0 Bft)
26.09.2023 06:30 10,8 C 7,2 C 11,7 C 12,2 C 12,8 C 88 % 0 lf 29 cb 200 cb 157 cb 194 cb 1021,0 hPa 0,0 l/m 0,0 km/h (0 Bft) N-NW 331 0 min 0,000 mm 0,0 UV-I 0 W/m 8,9 C 10,8 C 0,0 km/h (0 Bft)
26.09.2023 06:28 10,7 C 7,2 C 11,7 C 12,2 C 12,8 C 88 % 0 lf 29 cb 200 cb 157 cb 194 cb 1021,0 hPa 0,0 l/m 0,0 km/h (0 Bft) N-NW 331 0 min 0,000 mm 0,0 UV-I 0 W/m 8,8 C 10,7 C 0,0 km/h (0 Bft)
26.09.2023 06:26 10,8 C 7,2 C 11,7 C 12,2 C 12,8 C 88 % 0 lf 29 cb 200 cb 157 cb 194 cb 1021,0 hPa 0,0 l/m 0,0 km/h (0 Bft) N-NW 331 0 min 0,000 mm 0,0 UV-I 0 W/m 8,9 C 10,8 C 0,0 km/h (0 Bft)
26.09.2023 06:24 10,8 C 7,2 C 11,7 C 12,2 C 12,8 C 88 % 0 lf 29 cb 200 cb 157 cb 194 cb 1021,0 hPa 0,0 l/m 0,0 km/h (0 Bft) N-NW 331 0 min 0,000 mm 0,0 UV-I 0 W/m 8,9 C 10,8 C 0,0 km/h (0 Bft)
26.09.2023 06:22 10,9 C 7,2 C 11,7 C 12,2 C 12,8 C 88 % 0 lf 29 cb 200 cb 157 cb 194 cb 1021,0 hPa 0,0 l/m 0,0 km/h (0 Bft) N-NW 331 0 min 0,000 mm 0,0 UV-I 0 W/m 9,0 C 10,9 C 0,0 km/h (0 Bft)
26.09.2023 06:20 11,0 C 7,2 C 11,7 C 12,2 C 12,8 C 87 % 0 lf 29 cb 200 cb 157 cb 194 cb 1021,1 hPa 0,0 l/m 0,0 km/h (0 Bft) N-NW 331 0 min 0,000 mm 0,0 UV-I 0 W/m 8,9 C 11,0 C 0,0 km/h (0 Bft)
26.09.2023 06:18 11,1 C 7,2 C 11,7 C 12,2 C 12,8 C 87 % 0 lf 29 cb 200 cb 157 cb 194 cb 1021,0 hPa 0,0 l/m 0,0 km/h (0 Bft) N-NW 331 0 min 0,000 mm 0,0 UV-I 0 W/m 9,0 C 11,1 C 0,0 km/h (0 Bft)
26.09.2023 06:16 11,2 C 7,2 C 11,7 C 12,2 C 12,8 C 87 % 0 lf 29 cb 200 cb 157 cb 194 cb 1021,2 hPa 0,0 l/m 0,0 km/h (0 Bft) N-NW 331 0 min 0,000 mm 0,0 UV-I 0 W/m 9,1 C 11,2 C 0,0 km/h (0 Bft)
26.09.2023 06:14 11,3 C 7,2 C 11,7 C 12,2 C 12,8 C 87 % 0 lf 29 cb 200 cb 157 cb 193 cb 1021,2 hPa 0,0 l/m 0,0 km/h (0 Bft) N-NW 331 0 min 0,000 mm 0,0 UV-I 0 W/m 9,2 C 11,3 C 0,0 km/h (0 Bft)
26.09.2023 06:12 11,3 C 7,2 C 11,7 C 12,2 C 12,8 C 87 % 0 lf 29 cb 200 cb 157 cb 194 cb 1021,1 hPa 0,0 l/m 0,0 km/h (0 Bft) N-NW 331 0 min 0,000 mm 0,0 UV-I 0 W/m 9,2 C 11,3 C 0,0 km/h (0 Bft)
26.09.2023 06:10 11,3 C 7,2 C 11,7 C 12,2 C 12,8 C 87 % 0 lf 29 cb 200 cb 157 cb 193 cb 1021,2 hPa 0,0 l/m 0,0 km/h (0 Bft) N-NW 331 0 min 0,000 mm 0,0 UV-I 0 W/m 9,2 C 11,3 C 0,0 km/h (0 Bft)
26.09.2023 06:08 11,3 C 7,2 C 11,7 C 12,2 C 12,8 C 87 % 0 lf 29 cb 200 cb 157 cb 193 cb 1021,1 hPa 0,0 l/m 0,0 km/h (0 Bft) N-NW 331 0 min 0,000 mm 0,0 UV-I 0 W/m 9,2 C 11,3 C 0,0 km/h (0 Bft)
26.09.2023 06:06 11,3 C 7,2 C 11,7 C 12,2 C 12,8 C 87 % 0 lf 29 cb 200 cb 157 cb 193 cb 1021,1 hPa 0,0 l/m 0,0 km/h (0 Bft) N-NW 331 0 min 0,000 mm 0,0 UV-I 0 W/m 9,2 C 11,3 C 0,0 km/h (0 Bft)
26.09.2023 06:04 11,4 C 7,2 C 11,7 C 12,2 C 12,8 C 86 % 0 lf 29 cb 200 cb 157 cb 193 cb 1021,1 hPa 0,0 l/m 0,0 km/h (0 Bft) N-NW 331 0 min 0,000 mm 0,0 UV-I 0 W/m 9,1 C 11,4 C 0,0 km/h (0 Bft)
26.09.2023 06:02 11,5 C 7,8 C 11,7 C 12,2 C 12,8 C 86 % 0 lf 29 cb 200 cb 157 cb 193 cb 1021,0 hPa 0,0 l/m 0,0 km/h (0 Bft) N-NW 331 0 min 0,000 mm 0,0 UV-I 0 W/m 9,2 C 11,5 C 0,0 km/h (0 Bft)
26.09.2023 06:00 11,6 C 7,8 C 11,7 C 12,2 C 12,8 C 86 % 0 lf 29 cb 200 cb 157 cb 193 cb 1021,1 hPa 0,0 l/m 0,0 km/h (0 Bft) N-NW 331 0 min 0,000 mm 0,0 UV-I 0 W/m 9,3 C 11,6 C 0,0 km/h (0 Bft)
26.09.2023 05:58 11,6 C 7,8 C 11,7 C 12,2 C 12,8 C 86 % 0 lf 29 cb 200 cb 157 cb 193 cb 1021,0 hPa 0,0 l/m 0,0 km/h (0 Bft) N-NW 331 0 min 0,000 mm 0,0 UV-I 0 W/m 9,3 C 11,6 C 0,0 km/h (0 Bft)
26.09.2023 05:56 11,5 C 7,8 C 11,7 C 12,2 C 12,8 C 87 % 0 lf 29 cb 200 cb 157 cb 193 cb 1021,0 hPa 0,0 l/m 0,0 km/h (0 Bft) N-NW 331 0 min 0,000 mm 0,0 UV-I 0 W/m 9,4 C 11,5 C 0,0 km/h (0 Bft)
26.09.2023 05:54 11,5 C 7,8 C 11,7 C 12,2 C 12,8 C 87 % 0 lf 29 cb 200 cb 157 cb 193 cb 1021,1 hPa 0,0 l/m 0,0 km/h (0 Bft) N-NW 331 0 min 0,000 mm 0,0 UV-I 0 W/m 9,4 C 11,5 C 0,0 km/h (0 Bft)
26.09.2023 05:52 11,4 C 7,8 C 11,7 C 12,2 C 12,8 C 87 % 0 lf 29 cb 200 cb 157 cb 193 cb 1021,1 hPa 0,0 l/m 0,0 km/h (0 Bft) N-NW 331 0 min 0,000 mm 0,0 UV-I 0 W/m 9,3 C 11,4 C 0,0 km/h (0 Bft)
26.09.2023 05:50 11,3 C 7,8 C 11,7 C 12,2 C 12,8 C 87 % 0 lf 29 cb 200 cb 157 cb 193 cb 1021,1 hPa 0,0 l/m 0,0 km/h (0 Bft) N-NW 331 0 min 0,000 mm 0,0 UV-I 0 W/m 9,2 C 11,3 C 0,0 km/h (0 Bft)
26.09.2023 05:48 11,3 C 7,8 C 11,7 C 12,2 C 12,8 C 87 % 0 lf 29 cb 200 cb 157 cb 193 cb 1021,0 hPa 0,0 l/m 0,0 km/h (0 Bft) N-NW 331 0 min 0,000 mm 0,0 UV-I 0 W/m 9,2 C 11,3 C 0,0 km/h (0 Bft)
26.09.2023 05:46 11,3 C 7,8 C 11,7 C 12,2 C 12,8 C 87 % 0 lf 29 cb 200 cb 157 cb 193 cb 1021,1 hPa 0,0 l/m 0,0 km/h (0 Bft) N-NW 331 0 min 0,000 mm 0,0 UV-I 0 W/m 9,2 C 11,3 C 0,0 km/h (0 Bft)
26.09.2023 05:44 11,3 C 7,8 C 11,7 C 12,2 C 12,8 C 87 % 0 lf 29 cb 200 cb 157 cb 193 cb 1021,0 hPa 0,0 l/m 0,0 km/h (0 Bft) N-NW 331 0 min 0,000 mm 0,0 UV-I 0 W/m 9,2 C 11,3 C 0,0 km/h (0 Bft)
26.09.2023 05:42 11,4 C 7,8 C 11,7 C 12,2 C 12,8 C 87 % 0 lf 29 cb 200 cb 157 cb 193 cb 1021,1 hPa 0,0 l/m 0,0 km/h (0 Bft) N-NW 331 0 min 0,000 mm 0,0 UV-I 0 W/m 9,3 C 11,4 C 0,0 km/h (0 Bft)
26.09.2023 05:40 11,4 C 7,8 C 11,7 C 12,2 C 12,8 C 87 % 0 lf 29 cb 200 cb 157 cb 193 cb 1021,1 hPa 0,0 l/m 0,0 km/h (0 Bft) N-NW 331 0 min 0,000 mm 0,0 UV-I 0 W/m 9,3 C 11,4 C 0,0 km/h (0 Bft)
26.09.2023 05:38 11,4 C 7,8 C 11,7 C 12,2 C 12,8 C 87 % 0 lf 29 cb 200 cb 157 cb 193 cb 1021,0 hPa 0,0 l/m 0,0 km/h (0 Bft) N-NW 331 0 min 0,000 mm 0,0 UV-I 0 W/m 9,3 C 11,4 C 0,0 km/h (0 Bft)
26.09.2023 05:36 11,3 C 7,8 C 11,7 C 12,2 C 12,8 C 87 % 0 lf 29 cb 200 cb 157 cb 193 cb 1021,1 hPa 0,0 l/m 0,0 km/h (0 Bft) N-NW 331 0 min 0,000 mm 0,0 UV-I 0 W/m 9,2 C 11,3 C 0,0 km/h (0 Bft)
26.09.2023 05:34 11,3 C 7,8 C 11,7 C 12,2 C 12,8 C 87 % 0 lf 29 cb 200 cb 157 cb 193 cb 1021,0 hPa 0,0 l/m 0,0 km/h (0 Bft) N-NW 331 0 min 0,000 mm 0,0 UV-I 0 W/m 9,2 C 11,3 C 0,0 km/h (0 Bft)
26.09.2023 05:32 11,3 C 7,8 C 11,7 C 12,2 C 12,8 C 87 % 0 lf 29 cb 200 cb 157 cb 193 cb 1021,1 hPa 0,0 l/m 0,0 km/h (0 Bft) N-NW 331 0 min 0,000 mm 0,0 UV-I 0 W/m 9,2 C 11,3 C 0,0 km/h (0 Bft)
26.09.2023 05:30 11,3 C 7,8 C 11,7 C 12,2 C 12,8 C 87 % 0 lf 29 cb 200 cb 157 cb 193 cb 1021,0 hPa 0,0 l/m 0,0 km/h (0 Bft) N-NW 331 0 min 0,000 mm 0,0 UV-I 0 W/m 9,2 C 11,3 C 0,0 km/h (0 Bft)
26.09.2023 05:28 11,3 C 7,8 C 11,7 C 12,2 C 12,8 C 87 % 0 lf 29 cb 200 cb 157 cb 193 cb 1021,1 hPa 0,0 l/m 0,0 km/h (0 Bft) N-NW 331 0 min 0,000 mm 0,0 UV-I 0 W/m 9,2 C 11,3 C 0,0 km/h (0 Bft)
26.09.2023 05:26 11,3 C 7,8 C 11,7 C 12,2 C 12,8 C 87 % 0 lf 29 cb 200 cb 157 cb 193 cb 1021,1 hPa 0,0 l/m 0,0 km/h (0 Bft) N-NW 331 0 min 0,000 mm 0,0 UV-I 0 W/m 9,2 C 11,3 C 0,0 km/h (0 Bft)
26.09.2023 05:24 11,4 C 7,8 C 11,7 C 12,2 C 12,8 C 87 % 0 lf 29 cb 200 cb 157 cb 193 cb 1021,3 hPa 0,0 l/m 0,0 km/h (0 Bft) N-NW 331 0 min 0,000 mm 0,0 UV-I 0 W/m 9,3 C 11,4 C 0,0 km/h (0 Bft)
26.09.2023 05:22 11,4 C 7,8 C 11,7 C 12,2 C 12,8 C 87 % 0 lf 29 cb 200 cb 157 cb 193 cb 1021,2 hPa 0,0 l/m 0,0 km/h (0 Bft) N-NW 331 0 min 0,000 mm 0,0 UV-I 0 W/m 9,3 C 11,4 C 0,0 km/h (0 Bft)
26.09.2023 05:20 11,4 C 7,8 C 11,7 C 12,2 C 12,8 C 87 % 0 lf 29 cb 200 cb 157 cb 193 cb 1021,2 hPa 0,0 l/m 0,0 km/h (0 Bft) N-NW 331 0 min 0,000 mm 0,0 UV-I 0 W/m 9,3 C 11,4 C 0,0 km/h (0 Bft)
26.09.2023 05:18 11,4 C 7,8 C 11,7 C 12,2 C 12,8 C 87 % 0 lf 29 cb 200 cb 157 cb 193 cb 1021,3 hPa 0,0 l/m 0,0 km/h (0 Bft) N-NW 331 0 min 0,000 mm 0,0 UV-I 0 W/m 9,3 C 11,4 C 0,0 km/h (0 Bft)
26.09.2023 05:16 11,5 C 7,8 C 11,7 C 12,2 C 12,8 C 87 % 0 lf 29 cb 200 cb 157 cb 193 cb 1021,3 hPa 0,0 l/m 0,0 km/h (0 Bft) N-NW 331 0 min 0,000 mm 0,0 UV-I 0 W/m 9,4 C 11,5 C 0,0 km/h (0 Bft)
26.09.2023 05:14 11,5 C 7,8 C 11,7 C 12,2 C 12,8 C 87 % 0 lf 29 cb 200 cb 157 cb 193 cb 1021,3 hPa 0,0 l/m 0,0 km/h (0 Bft) N-NW 331 0 min 0,000 mm 0,0 UV-I 0 W/m 9,4 C 11,5 C 0,0 km/h (0 Bft)
26.09.2023 05:12 11,5 C 7,8 C 11,7 C 12,2 C 12,8 C 87 % 0 lf 29 cb 200 cb 157 cb 193 cb 1021,3 hPa 0,0 l/m 0,0 km/h (0 Bft) N-NW 331 0 min 0,000 mm 0,0 UV-I 0 W/m 9,4 C 11,5 C 0,0 km/h (0 Bft)
26.09.2023 05:10 11,5 C 7,8 C 11,7 C 12,2 C 12,8 C 87 % 0 lf 29 cb 200 cb 157 cb 193 cb 1021,3 hPa 0,0 l/m 0,0 km/h (0 Bft) N-NW 331 0 min 0,000 mm 0,0 UV-I 0 W/m 9,4 C 11,5 C 0,0 km/h (0 Bft)
26.09.2023 05:08 11,5 C 7,8 C 11,7 C 12,2 C 12,8 C 87 % 0 lf 29 cb 200 cb 157 cb 193 cb 1021,3 hPa 0,0 l/m 0,0 km/h (0 Bft) N-NW 331 0 min 0,000 mm 0,0 UV-I 0 W/m 9,4 C 11,5 C 0,0 km/h (0 Bft)
26.09.2023 05:06 11,4 C 7,8 C 11,7 C 12,2 C 12,8 C 87 % 0 lf 29 cb 200 cb 157 cb 193 cb 1021,3 hPa 0,0 l/m 0,0 km/h (0 Bft) N-NW 331 0 min 0,000 mm 0,0 UV-I 0 W/m 9,3 C 11,4 C 0,0 km/h (0 Bft)
26.09.2023 05:04 11,4 C 7,8 C 11,7 C 12,2 C 12,8 C 87 % 0 lf 29 cb 200 cb 157 cb 193 cb 1021,3 hPa 0,0 l/m 0,0 km/h (0 Bft) N-NW 331 0 min 0,000 mm 0,0 UV-I 0 W/m 9,3 C 11,4 C 0,0 km/h (0 Bft)
26.09.2023 05:02 11,4 C 7,8 C 11,7 C 12,2 C 12,8 C 87 % 0 lf 29 cb 200 cb 157 cb 193 cb 1021,2 hPa 0,0 l/m 0,0 km/h (0 Bft) N-NW 331 0 min 0,000 mm 0,0 UV-I 0 W/m 9,3 C 11,4 C 0,0 km/h (0 Bft)
26.09.2023 05:00 11,4 C 7,8 C 11,7 C 12,2 C 12,8 C 87 % 0 lf 29 cb 200 cb 157 cb 193 cb 1021,3 hPa 0,0 l/m 0,0 km/h (0 Bft) N-NW 331 0 min 0,000 mm 0,0 UV-I 0 W/m 9,3 C 11,4 C 0,0 km/h (0 Bft)
26.09.2023 04:58 11,4 C 7,8 C 11,7 C 12,2 C 12,8 C 87 % 0 lf 29 cb 200 cb 157 cb 193 cb 1021,3 hPa 0,0 l/m 0,0 km/h (0 Bft) N-NW 331 0 min 0,000 mm 0,0 UV-I 0 W/m 9,3 C 11,4 C 0,0 km/h (0 Bft)
26.09.2023 04:56 11,4 C 7,8 C 11,7 C 12,2 C 12,8 C 87 % 0 lf 29 cb 200 cb 157 cb 193 cb 1021,3 hPa 0,0 l/m 0,0 km/h (0 Bft) N-NW 331 0 min 0,000 mm 0,0 UV-I 0 W/m 9,3 C 11,4 C 0,0 km/h (0 Bft)
26.09.2023 04:54 11,4 C 7,8 C 11,7 C 12,2 C 12,8 C 87 % 0 lf 29 cb 200 cb 157 cb 193 cb 1021,4 hPa 0,0 l/m 0,0 km/h (0 Bft) N-NW 331 0 min 0,000 mm 0,0 UV-I 0 W/m 9,3 C 11,4 C 0,0 km/h (0 Bft)
26.09.2023 04:52 11,4 C 7,8 C 11,7 C 12,2 C 12,8 C 87 % 0 lf 29 cb 200 cb 157 cb 193 cb 1021,3 hPa 0,0 l/m 0,0 km/h (0 Bft) N-NW 331 0 min 0,000 mm 0,0 UV-I 0 W/m 9,3 C 11,4 C 0,0 km/h (0 Bft)
26.09.2023 04:50 11,4 C 7,8 C 11,7 C 12,2 C 12,8 C 86 % 0 lf 29 cb 200 cb 157 cb 193 cb 1021,3 hPa 0,0 l/m 0,0 km/h (0 Bft) N-NW 331 0 min 0,000 mm 0,0 UV-I 0 W/m 9,1 C 11,4 C 0,0 km/h (0 Bft)
26.09.2023 04:48 11,4 C 7,8 C 11,7 C 12,2 C 12,8 C 86 % 0 lf 29 cb 200 cb 157 cb 193 cb 1021,3 hPa 0,0 l/m 0,0 km/h (0 Bft) N-NW 331 0 min 0,000 mm 0,0 UV-I 0 W/m 9,1 C 11,4 C 0,0 km/h (0 Bft)
26.09.2023 04:46 11,5 C 7,8 C 11,7 C 12,2 C 12,8 C 86 % 0 lf 29 cb 200 cb 157 cb 193 cb 1021,3 hPa 0,0 l/m 0,0 km/h (0 Bft) N-NW 331 0 min 0,000 mm 0,0 UV-I 0 W/m 9,2 C 11,5 C 0,0 km/h (0 Bft)
26.09.2023 04:44 11,6 C 7,8 C 11,7 C 12,2 C 12,8 C 85 % 0 lf 29 cb 200 cb 157 cb 193 cb 1021,4 hPa 0,0 l/m 0,0 km/h (0 Bft) N-NW 331 0 min 0,000 mm 0,0 UV-I 0 W/m 9,2 C 11,6 C 0,0 km/h (0 Bft)
26.09.2023 04:42 11,6 C 7,8 C 11,7 C 12,2 C 12,8 C 85 % 0 lf 29 cb 200 cb 157 cb 193 cb 1021,4 hPa 0,0 l/m 0,0 km/h (0 Bft) N-NW 331 0 min 0,000 mm 0,0 UV-I 0 W/m 9,2 C 11,6 C 0,0 km/h (0 Bft)
26.09.2023 04:40 11,7 C 7,8 C 11,7 C 12,2 C 12,8 C 85 % 0 lf 29 cb 200 cb 157 cb 193 cb 1021,5 hPa 0,0 l/m 0,0 km/h (0 Bft) N-NW 331 0 min 0,000 mm 0,0 UV-I 0 W/m 9,3 C 11,7 C 0,0 km/h (0 Bft)
26.09.2023 04:38 11,7 C 7,8 C 11,7 C 12,2 C 12,8 C 85 % 0 lf 29 cb 200 cb 157 cb 193 cb 1021,4 hPa 0,0 l/m 0,0 km/h (0 Bft) N-NW 331 0 min 0,000 mm 0,0 UV-I 0 W/m 9,3 C 11,7 C 0,0 km/h (0 Bft)
26.09.2023 04:36 11,7 C 7,8 C 11,7 C 12,2 C 12,8 C 85 % 0 lf 29 cb 200 cb 156 cb 193 cb 1021,5 hPa 0,0 l/m 0,0 km/h (0 Bft) N-NW 331 0 min 0,000 mm 0,0 UV-I 0 W/m 9,3 C 11,7 C 0,0 km/h (0 Bft)
26.09.2023 04:34 11,7 C 7,8 C 11,7 C 12,2 C 12,8 C 85 % 0 lf 29 cb 200 cb 156 cb 193 cb 1021,5 hPa 0,0 l/m 0,0 km/h (0 Bft) N-NW 331 0 min 0,000 mm 0,0 UV-I 0 W/m 9,3 C 11,7 C 0,0 km/h (0 Bft)
26.09.2023 04:32 11,7 C 7,8 C 11,7 C 12,2 C 12,8 C 85 % 0 lf 29 cb 200 cb 156 cb 193 cb 1021,5 hPa 0,0 l/m 0,0 km/h (0 Bft) N-NW 331 0 min 0,000 mm 0,0 UV-I 0 W/m 9,3 C 11,7 C 0,0 km/h (0 Bft)
26.09.2023 04:30 11,7 C 7,8 C 11,7 C 12,2 C 12,8 C 85 % 0 lf 29 cb 200 cb 156 cb 193 cb 1021,6 hPa 0,0 l/m 0,0 km/h (0 Bft) N-NW 331 0 min 0,000 mm 0,0 UV-I 0 W/m 9,3 C 11,7 C 0,0 km/h (0 Bft)
26.09.2023 04:28 11,8 C 7,8 C 11,7 C 12,2 C 12,8 C 84 % 0 lf 29 cb 200 cb 156 cb 193 cb 1021,5 hPa 0,0 l/m 0,0 km/h (0 Bft) N-NW 331 0 min 0,000 mm 0,0 UV-I 0 W/m 9,2 C 11,8 C 0,0 km/h (0 Bft)
26.09.2023 04:26 11,8 C 7,8 C 11,7 C 12,8 C 12,8 C 84 % 0 lf 29 cb 200 cb 158 cb 193 cb 1021,6 hPa 0,0 l/m 0,0 km/h (0 Bft) N-NW 331 0 min 0,000 mm 0,0 UV-I 0 W/m 9,2 C 11,8 C 0,0 km/h (0 Bft)
26.09.2023 04:24 11,9 C 7,8 C 11,7 C 12,8 C 12,8 C 84 % 0 lf 29 cb 200 cb 158 cb 193 cb 1021,5 hPa 0,0 l/m 0,0 km/h (0 Bft) N-NW 331 0 min 0,000 mm 0,0 UV-I 0 W/m 9,3 C 11,9 C 0,0 km/h (0 Bft)
26.09.2023 04:22 11,9 C 7,8 C 11,7 C 12,8 C 12,8 C 84 % 0 lf 29 cb 200 cb 158 cb 193 cb 1021,6 hPa 0,0 l/m 0,0 km/h (0 Bft) N-NW 331 0 min 0,000 mm 0,0 UV-I 0 W/m 9,3 C 11,9 C 0,0 km/h (0 Bft)
26.09.2023 04:20 11,9 C 7,8 C 11,7 C 12,8 C 12,8 C 84 % 0 lf 29 cb 200 cb 158 cb 193 cb 1021,6 hPa 0,0 l/m 0,0 km/h (0 Bft) N-NW 331 0 min 0,000 mm 0,0 UV-I 0 W/m 9,3 C 11,9 C 0,0 km/h (0 Bft)
26.09.2023 04:18 11,9 C 7,8 C 11,7 C 12,8 C 12,8 C 84 % 0 lf 29 cb 200 cb 158 cb 193 cb 1021,6 hPa 0,0 l/m 0,0 km/h (0 Bft) N-NW 331 0 min 0,000 mm 0,0 UV-I 0 W/m 9,3 C 11,9 C 0,0 km/h (0 Bft)
26.09.2023 04:16 11,8 C 7,8 C 11,7 C 12,8 C 12,8 C 84 % 0 lf 29 cb 200 cb 158 cb 193 cb 1021,6 hPa 0,0 l/m 0,0 km/h (0 Bft) N-NW 331 0 min 0,000 mm 0,0 UV-I 0 W/m 9,2 C 11,8 C 0,0 km/h (0 Bft)
26.09.2023 04:14 11,8 C 7,8 C 11,7 C 12,8 C 12,8 C 84 % 0 lf 29 cb 200 cb 158 cb 193 cb 1021,6 hPa 0,0 l/m 0,0 km/h (0 Bft) N-NW 331 0 min 0,000 mm 0,0 UV-I 0 W/m 9,2 C 11,8 C 0,0 km/h (0 Bft)
26.09.2023 04:12 11,8 C 7,8 C 11,7 C 12,8 C 12,8 C 84 % 0 lf 29 cb 200 cb 158 cb 193 cb 1021,7 hPa 0,0 l/m 0,0 km/h (0 Bft) N-NW 331 0 min 0,000 mm 0,0 UV-I 0 W/m 9,2 C 11,8 C 0,0 km/h (0 Bft)
26.09.2023 04:10 11,8 C 7,8 C 11,7 C 12,8 C 12,8 C 84 % 0 lf 29 cb 200 cb 158 cb 193 cb 1021,6 hPa 0,0 l/m 0,0 km/h (0 Bft) N-NW 331 0 min 0,000 mm 0,0 UV-I 0 W/m 9,2 C 11,8 C 0,0 km/h (0 Bft)
26.09.2023 04:08 11,8 C 7,8 C 11,7 C 12,8 C 12,8 C 84 % 0 lf 29 cb 200 cb 158 cb 193 cb 1021,6 hPa 0,0 l/m 0,0 km/h (0 Bft) N-NW 331 0 min 0,000 mm 0,0 UV-I 0 W/m 9,2 C 11,8 C 0,0 km/h (0 Bft)
26.09.2023 04:06 11,7 C 7,8 C 11,7 C 12,8 C 12,8 C 84 % 0 lf 29 cb 200 cb 158 cb 193 cb 1021,7 hPa 0,0 l/m 0,0 km/h (0 Bft) N-NW 331 0 min 0,000 mm 0,0 UV-I 0 W/m 9,1 C 11,7 C 0,0 km/h (0 Bft)
26.09.2023 04:04 11,7 C 7,8 C 11,7 C 12,8 C 12,8 C 84 % 0 lf 29 cb 200 cb 158 cb 193 cb 1021,8 hPa 0,0 l/m 0,0 km/h (0 Bft) N-NW 331 0 min 0,000 mm 0,0 UV-I 0 W/m 9,1 C 11,7 C 0,0 km/h (0 Bft)
26.09.2023 04:02 11,7 C 7,8 C 11,7 C 12,8 C 12,8 C 84 % 0 lf 29 cb 200 cb 158 cb 193 cb 1021,7 hPa 0,0 l/m 0,0 km/h (0 Bft) N-NW 331 0 min 0,000 mm 0,0 UV-I 0 W/m 9,1 C 11,7 C 0,0 km/h (0 Bft)
26.09.2023 04:00 11,7 C 7,8 C 11,7 C 12,8 C 12,8 C 84 % 0 lf 29 cb 200 cb 158 cb 193 cb 1021,7 hPa 0,0 l/m 0,0 km/h (0 Bft) N-NW 331 0 min 0,000 mm 0,0 UV-I 0 W/m 9,1 C 11,7 C 0,0 km/h (0 Bft)
26.09.2023 03:58 11,8 C 7,8 C 11,7 C 12,8 C 12,8 C 84 % 0 lf 29 cb 200 cb 158 cb 193 cb 1021,6 hPa 0,0 l/m 0,0 km/h (0 Bft) N-NW 331 0 min 0,000 mm 0,0 UV-I 0 W/m 9,2 C 11,8 C 0,0 km/h (0 Bft)
26.09.2023 03:56 11,8 C 7,8 C 12,2 C 12,8 C 12,8 C 84 % 0 lf 29 cb 200 cb 158 cb 193 cb 1021,6 hPa 0,0 l/m 0,0 km/h (0 Bft) N-NW 331 0 min 0,000 mm 0,0 UV-I 0 W/m 9,2 C 11,8 C 0,0 km/h (0 Bft)
26.09.2023 03:54 11,8 C 7,8 C 12,2 C 12,8 C 12,8 C 83 % 0 lf 29 cb 200 cb 158 cb 193 cb 1021,7 hPa 0,0 l/m 0,0 km/h (0 Bft) N-NW 331 0 min 0,000 mm 0,0 UV-I 0 W/m 9,0 C 11,8 C 0,0 km/h (0 Bft)
26.09.2023 03:52 11,8 C 7,8 C 12,2 C 12,8 C 12,8 C 83 % 0 lf 29 cb 200 cb 158 cb 193 cb 1021,7 hPa 0,0 l/m 0,0 km/h (0 Bft) N-NW 331 0 min 0,000 mm 0,0 UV-I 0 W/m 9,0 C 11,8 C 0,0 km/h (0 Bft)
26.09.2023 03:50 11,8 C 7,8 C 12,2 C 12,8 C 12,8 C 83 % 0 lf 29 cb 200 cb 158 cb 193 cb 1021,7 hPa 0,0 l/m 0,0 km/h (0 Bft) N-NW 331 0 min 0,000 mm 0,0 UV-I 0 W/m 9,0 C 11,8 C 0,0 km/h (0 Bft)
26.09.2023 03:48 11,8 C 7,8 C 12,2 C 12,8 C 12,8 C 83 % 0 lf 29 cb 200 cb 158 cb 193 cb 1021,8 hPa 0,0 l/m 0,0 km/h (0 Bft) N-NW 331 0 min 0,000 mm 0,0 UV-I 0 W/m 9,0 C 11,8 C 0,0 km/h (0 Bft)
26.09.2023 03:46 11,8 C 7,8 C 12,2 C 12,8 C 12,8 C 83 % 0 lf 29 cb 200 cb 158 cb 193 cb 1021,7 hPa 0,0 l/m 0,0 km/h (0 Bft) N-NW 331 0 min 0,000 mm 0,0 UV-I 0 W/m 9,0 C 11,8 C 0,0 km/h (0 Bft)
26.09.2023 03:44 11,8 C 7,8 C 12,2 C 12,8 C 12,8 C 83 % 0 lf 29 cb 200 cb 158 cb 193 cb 1021,8 hPa 0,0 l/m 0,0 km/h (0 Bft) N-NW 331 0 min 0,000 mm 0,0 UV-I 0 W/m 9,0 C 11,8 C 0,0 km/h (0 Bft)
26.09.2023 03:42 11,8 C 7,8 C 12,2 C 12,8 C 13,3 C 83 % 0 lf 29 cb 200 cb 158 cb 196 cb 1021,7 hPa 0,0 l/m 0,0 km/h (0 Bft) N-NW 331 0 min 0,000 mm 0,0 UV-I 0 W/m 9,0 C 11,8 C 0,0 km/h (0 Bft)
26.09.2023 03:40 11,9 C 7,8 C 12,2 C 12,8 C 13,3 C 82 % 0 lf 29 cb 200 cb 158 cb 196 cb 1021,7 hPa 0,0 l/m 0,0 km/h (0 Bft) N-NW 331 0 min 0,000 mm 0,0 UV-I 0 W/m 8,9 C 11,9 C 0,0 km/h (0 Bft)
26.09.2023 03:38 11,9 C 7,8 C 12,2 C 12,8 C 13,3 C 82 % 0 lf 29 cb 200 cb 158 cb 196 cb 1021,8 hPa 0,0 l/m 0,0 km/h (0 Bft) N-NW 331 0 min 0,000 mm 0,0 UV-I 0 W/m 8,9 C 11,9 C 0,0 km/h (0 Bft)
26.09.2023 03:36 11,9 C 7,8 C 12,2 C 12,8 C 13,3 C 82 % 0 lf 29 cb 200 cb 158 cb 196 cb 1021,8 hPa 0,0 l/m 0,0 km/h (0 Bft) N-NW 331 0 min 0,000 mm 0,0 UV-I 0 W/m 8,9 C 11,9 C 0,0 km/h (0 Bft)
26.09.2023 03:34 11,9 C 7,8 C 12,2 C 12,8 C 13,3 C 82 % 0 lf 29 cb 200 cb 158 cb 196 cb 1021,8 hPa 0,0 l/m 0,0 km/h (0 Bft) N-NW 331 0 min 0,000 mm 0,0 UV-I 0 W/m 8,9 C 11,9 C 0,0 km/h (0 Bft)
26.09.2023 03:32 11,9 C 7,8 C 12,2 C 12,8 C 13,3 C 82 % 0 lf 29 cb 200 cb 158 cb 196 cb 1021,8 hPa 0,0 l/m 0,0 km/h (0 Bft) N-NW 331 0 min 0,000 mm 0,0 UV-I 0 W/m 8,9 C 11,9 C 0,0 km/h (0 Bft)
26.09.2023 03:30 12,0 C 7,8 C 12,2 C 12,8 C 13,3 C 82 % 0 lf 29 cb 200 cb 158 cb 196 cb 1021,9 hPa 0,0 l/m 0,0 km/h (0 Bft) N-NW 331 0 min 0,000 mm 0,0 UV-I 0 W/m 9,0 C 12,0 C 0,0 km/h (0 Bft)
26.09.2023 03:28 12,0 C 7,8 C 12,2 C 12,8 C 13,3 C 82 % 0 lf 29 cb 200 cb 158 cb 196 cb 1021,9 hPa 0,0 l/m 0,0 km/h (0 Bft) N-NW 331 0 min 0,000 mm 0,0 UV-I 0 W/m 9,0 C 12,0 C 0,0 km/h (0 Bft)
26.09.2023 03:26 12,0 C 7,8 C 12,2 C 12,8 C 13,3 C 82 % 0 lf 29 cb 200 cb 158 cb 196 cb 1021,9 hPa 0,0 l/m 0,0 km/h (0 Bft) N-NW 331 0 min 0,000 mm 0,0 UV-I 0 W/m 9,0 C 12,0 C 0,0 km/h (0 Bft)
26.09.2023 03:24 11,9 C 7,8 C 12,2 C 12,8 C 13,3 C 82 % 0 lf 29 cb 200 cb 158 cb 196 cb 1021,9 hPa 0,0 l/m 0,0 km/h (0 Bft) N-NW 331 0 min 0,000 mm 0,0 UV-I 0 W/m 8,9 C 11,9 C 0,0 km/h (0 Bft)
26.09.2023 03:22 12,0 C 7,8 C 12,2 C 12,8 C 13,3 C 81 % 0 lf 29 cb 200 cb 158 cb 196 cb 1022,0 hPa 0,0 l/m 0,0 km/h (0 Bft) N-NW 331 0 min 0,000 mm 0,0 UV-I 0 W/m 8,8 C 12,0 C 0,0 km/h (0 Bft)
26.09.2023 03:20 12,0 C 7,8 C 12,2 C 12,8 C 13,3 C 81 % 0 lf 29 cb 200 cb 158 cb 196 cb 1021,9 hPa 0,0 l/m 0,0 km/h (0 Bft) N-NW 331 0 min 0,000 mm 0,0 UV-I 0 W/m 8,8 C 12,0 C 0,0 km/h (0 Bft)
26.09.2023 03:18 12,1 C 7,8 C 12,2 C 12,8 C 13,3 C 81 % 0 lf 29 cb 200 cb 158 cb 196 cb 1022,1 hPa 0,0 l/m 0,0 km/h (0 Bft) N-NW 331 0 min 0,000 mm 0,0 UV-I 0 W/m 8,9 C 12,1 C 0,0 km/h (0 Bft)
26.09.2023 03:16 12,1 C 7,8 C 12,2 C 12,8 C 13,3 C 81 % 0 lf 29 cb 200 cb 158 cb 196 cb 1022,1 hPa 0,0 l/m 0,0 km/h (0 Bft) N-NW 331 0 min 0,000 mm 0,0 UV-I 0 W/m 8,9 C 12,1 C 0,0 km/h (0 Bft)
26.09.2023 03:14 12,1 C 7,8 C 12,2 C 12,8 C 13,3 C 81 % 0 lf 29 cb 200 cb 158 cb 196 cb 1022,1 hPa 0,0 l/m 0,0 km/h (0 Bft) N-NW 331 0 min 0,000 mm 0,0 UV-I 0 W/m 8,9 C 12,1 C 0,0 km/h (0 Bft)
26.09.2023 03:12 12,1 C 7,8 C 12,2 C 12,8 C 13,3 C 81 % 0 lf 29 cb 200 cb 158 cb 196 cb 1022,0 hPa 0,0 l/m 0,0 km/h (0 Bft) N-NW 331 0 min 0,000 mm 0,0 UV-I 0 W/m 8,9 C 12,1 C 0,0 km/h (0 Bft)
26.09.2023 03:10 12,1 C 7,8 C 12,2 C 12,8 C 13,3 C 81 % 0 lf 29 cb 200 cb 158 cb 196 cb 1022,0 hPa 0,0 l/m 0,0 km/h (0 Bft) N-NW 331 0 min 0,000 mm 0,0 UV-I 0 W/m 8,9 C 12,1 C 0,0 km/h (0 Bft)
26.09.2023 03:08 12,1 C 8,3 C 12,2 C 12,8 C 13,3 C 81 % 0 lf 29 cb 200 cb 158 cb 196 cb 1022,1 hPa 0,0 l/m 0,0 km/h (0 Bft) N-NW 331 0 min 0,000 mm 0,0 UV-I 0 W/m 8,9 C 12,1 C 0,0 km/h (0 Bft)
26.09.2023 03:06 12,1 C 7,8 C 12,2 C 12,8 C 13,3 C 81 % 0 lf 29 cb 200 cb 158 cb 196 cb 1022,0 hPa 0,0 l/m 0,0 km/h (0 Bft) N-NW 331 0 min 0,000 mm 0,0 UV-I 0 W/m 8,9 C 12,1 C 0,0 km/h (0 Bft)
26.09.2023 03:04 12,1 C 7,8 C 12,2 C 12,8 C 13,3 C 81 % 0 lf 29 cb 200 cb 158 cb 196 cb 1022,0 hPa 0,0 l/m 0,0 km/h (0 Bft) N-NW 331 0 min 0,000 mm 0,0 UV-I 0 W/m 8,9 C 12,1 C 0,0 km/h (0 Bft)
26.09.2023 03:02 12,1 C 7,8 C 12,2 C 12,8 C 13,3 C 82 % 0 lf 29 cb 200 cb 158 cb 196 cb 1022,0 hPa 0,0 l/m 0,0 km/h (0 Bft) N-NW 331 0 min 0,000 mm 0,0 UV-I 0 W/m 9,1 C 12,1 C 0,0 km/h (0 Bft)
26.09.2023 03:00 12,0 C 7,8 C 12,2 C 12,8 C 13,3 C 82 % 0 lf 29 cb 200 cb 158 cb 196 cb 1022,0 hPa 0,0 l/m 0,0 km/h (0 Bft) N-NW 331 0 min 0,000 mm 0,0 UV-I 0 W/m 9,0 C 12,0 C 0,0 km/h (0 Bft)
26.09.2023 02:58 12,0 C 7,8 C 12,2 C 12,8 C 13,3 C 82 % 0 lf 29 cb 200 cb 158 cb 196 cb 1021,9 hPa 0,0 l/m 0,0 km/h (0 Bft) N-NW 331 0 min 0,000 mm 0,0 UV-I 0 W/m 9,0 C 12,0 C 0,0 km/h (0 Bft)
26.09.2023 02:56 12,0 C 7,8 C 12,2 C 12,8 C 13,3 C 82 % 0 lf 29 cb 200 cb 158 cb 196 cb 1021,9 hPa 0,0 l/m 0,0 km/h (0 Bft) N-NW 331 0 min 0,000 mm 0,0 UV-I 0 W/m 9,0 C 12,0 C 0,0 km/h (0 Bft)
26.09.2023 02:54 12,0 C 7,8 C 12,2 C 12,8 C 13,3 C 81 % 0 lf 29 cb 200 cb 157 cb 196 cb 1022,0 hPa 0,0 l/m 0,0 km/h (0 Bft) N-NW 331 0 min 0,000 mm 0,0 UV-I 0 W/m 8,8 C 12,0 C 0,0 km/h (0 Bft)
26.09.2023 02:52 12,1 C 7,8 C 12,2 C 12,8 C 13,3 C 81 % 0 lf 29 cb 200 cb 158 cb 196 cb 1021,9 hPa 0,0 l/m 0,0 km/h (0 Bft) N-NW 331 0 min 0,000 mm 0,0 UV-I 0 W/m 8,9 C 12,1 C 0,0 km/h (0 Bft)
26.09.2023 02:50 12,1 C 7,8 C 12,2 C 12,8 C 13,3 C 81 % 0 lf 29 cb 200 cb 157 cb 196 cb 1022,0 hPa 0,0 l/m 0,0 km/h (0 Bft) N-NW 331 0 min 0,000 mm 0,0 UV-I 0 W/m 8,9 C 12,1 C 0,0 km/h (0 Bft)
26.09.2023 02:48 12,1 C 7,8 C 12,2 C 12,8 C 13,3 C 82 % 0 lf 29 cb 200 cb 157 cb 196 cb 1022,1 hPa 0,0 l/m 0,0 km/h (0 Bft) N-NW 331 0 min 0,000 mm 0,0 UV-I 0 W/m 9,1 C 12,1 C 0,0 km/h (0 Bft)
26.09.2023 02:46 12,1 C 7,8 C 12,2 C 12,8 C 13,3 C 81 % 0 lf 29 cb 200 cb 157 cb 196 cb 1022,0 hPa 0,0 l/m 0,0 km/h (0 Bft) N-NW 331 0 min 0,000 mm 0,0 UV-I 0 W/m 8,9 C 12,1 C 0,0 km/h (0 Bft)
26.09.2023 02:44 12,0 C 7,8 C 12,2 C 12,8 C 13,3 C 82 % 0 lf 29 cb 200 cb 157 cb 196 cb 1022,1 hPa 0,0 l/m 0,0 km/h (0 Bft) N-NW 331 0 min 0,000 mm 0,0 UV-I 0 W/m 9,0 C 12,0 C 0,0 km/h (0 Bft)
26.09.2023 02:42 11,9 C 7,8 C 12,2 C 12,8 C 13,3 C 82 % 0 lf 29 cb 200 cb 157 cb 196 cb 1022,1 hPa 0,0 l/m 0,0 km/h (0 Bft) N-NW 331 0 min 0,000 mm 0,0 UV-I 0 W/m 8,9 C 11,9 C 0,0 km/h (0 Bft)
26.09.2023 02:40 11,9 C 7,8 C 12,2 C 12,8 C 13,3 C 82 % 0 lf 29 cb 200 cb 157 cb 196 cb 1022,0 hPa 0,0 l/m 0,0 km/h (0 Bft) N-NW 331 0 min 0,000 mm 0,0 UV-I 0 W/m 8,9 C 11,9 C 0,0 km/h (0 Bft)
26.09.2023 02:38 11,9 C 7,8 C 12,2 C 12,8 C 13,3 C 82 % 0 lf 29 cb 200 cb 157 cb 196 cb 1022,0 hPa 0,0 l/m 0,0 km/h (0 Bft) N-NW 331 0 min 0,000 mm 0,0 UV-I 0 W/m 8,9 C 11,9 C 0,0 km/h (0 Bft)
26.09.2023 02:36 11,9 C 7,8 C 12,2 C 12,8 C 13,3 C 81 % 0 lf 29 cb 200 cb 157 cb 196 cb 1022,1 hPa 0,0 l/m 0,0 km/h (0 Bft) N-NW 331 0 min 0,000 mm 0,0 UV-I 0 W/m 8,7 C 11,9 C 0,0 km/h (0 Bft)
26.09.2023 02:34 11,9 C 7,8 C 12,2 C 12,8 C 13,3 C 81 % 0 lf 29 cb 200 cb 157 cb 196 cb 1022,1 hPa 0,0 l/m 0,0 km/h (0 Bft) N-NW 331 0 min 0,000 mm 0,0 UV-I 0 W/m 8,7 C 11,9 C 0,0 km/h (0 Bft)
26.09.2023 02:32 12,0 C 7,8 C 12,2 C 12,8 C 13,3 C 81 % 0 lf 29 cb 200 cb 157 cb 196 cb 1022,1 hPa 0,0 l/m 0,0 km/h (0 Bft) N-NW 331 0 min 0,000 mm 0,0 UV-I 0 W/m 8,8 C 12,0 C 0,0 km/h (0 Bft)
26.09.2023 02:30 12,0 C 7,8 C 12,2 C 12,8 C 13,3 C 81 % 0 lf 29 cb 200 cb 157 cb 196 cb 1022,1 hPa 0,0 l/m 0,0 km/h (0 Bft) N-NW 331 0 min 0,000 mm 0,0 UV-I 0 W/m 8,8 C 12,0 C 0,0 km/h (0 Bft)
26.09.2023 02:28 12,0 C 7,8 C 12,2 C 12,8 C 13,3 C 81 % 0 lf 29 cb 200 cb 157 cb 196 cb 1022,1 hPa 0,0 l/m 0,0 km/h (0 Bft) N-NW 331 0 min 0,000 mm 0,0 UV-I 0 W/m 8,8 C 12,0 C 0,0 km/h (0 Bft)
26.09.2023 02:26 12,1 C 7,8 C 12,2 C 12,8 C 13,3 C 81 % 0 lf 29 cb 200 cb 157 cb 196 cb 1022,0 hPa 0,0 l/m 0,0 km/h (0 Bft) N-NW 331 0 min 0,000 mm 0,0 UV-I 0 W/m 8,9 C 12,1 C 0,0 km/h (0 Bft)
26.09.2023 02:25 12,1 C 7,8 C 12,2 C 12,8 C 13,3 C 81 % 0 lf 29 cb 200 cb 157 cb 196 cb 1022,0 hPa 0,0 l/m 0,0 km/h (0 Bft) N-NW 331 0 min 0,000 mm 0,0 UV-I 0 W/m 8,9 C 12,1 C 0,0 km/h (0 Bft)
26.09.2023 02:24 12,1 C 7,8 C 12,2 C 12,8 C 13,3 C 81 % 0 lf 29 cb 200 cb 157 cb 196 cb 1022,0 hPa 0,0 l/m 0,0 km/h (0 Bft) N-NW 331 0 min 0,000 mm 0,0 UV-I 0 W/m 8,9 C 12,1 C 0,0 km/h (0 Bft)
26.09.2023 02:20 12,1 C 8,3 C 12,2 C 12,8 C 13,3 C 81 % 0 lf 29 cb 200 cb 157 cb 196 cb 1022,0 hPa 0,0 l/m 0,0 km/h (0 Bft) N-NW 331 0 min 0,000 mm 0,0 UV-I 0 W/m 8,9 C 12,1 C 0,0 km/h (0 Bft)
26.09.2023 02:18 12,1 C 8,3 C 12,2 C 12,8 C 13,3 C 81 % 0 lf 29 cb 200 cb 157 cb 196 cb 1022,0 hPa 0,0 l/m 0,0 km/h (0 Bft) N-NW 331 0 min 0,000 mm 0,0 UV-I 0 W/m 8,9 C 12,1 C 0,0 km/h (0 Bft)
26.09.2023 02:16 12,1 C 8,3 C 12,2 C 12,8 C 13,3 C 80 % 0 lf 29 cb 200 cb 157 cb 196 cb 1022,0 hPa 0,0 l/m 0,0 km/h (0 Bft) N-NW 331 0 min 0,000 mm 0,0 UV-I 0 W/m 8,8 C 12,1 C 0,0 km/h (0 Bft)
26.09.2023 02:14 12,2 C 8,3 C 12,2 C 12,8 C 13,3 C 80 % 0 lf 29 cb 200 cb 157 cb 196 cb 1022,0 hPa 0,0 l/m 0,0 km/h (0 Bft) N-NW 331 0 min 0,000 mm 0,0 UV-I 0 W/m 8,9 C 12,2 C 0,0 km/h (0 Bft)
26.09.2023 02:12 12,2 C 8,3 C 12,2 C 12,8 C 13,3 C 80 % 0 lf 29 cb 200 cb 157 cb 196 cb 1022,0 hPa 0,0 l/m 0,0 km/h (0 Bft) N-NW 331 0 min 0,000 mm 0,0 UV-I 0 W/m 8,9 C 12,2 C 0,0 km/h (0 Bft)
26.09.2023 02:10 12,3 C 8,3 C 12,2 C 12,8 C 13,3 C 80 % 0 lf 29 cb 200 cb 157 cb 196 cb 1022,0 hPa 0,0 l/m 0,0 km/h (0 Bft) N-NW 331 0 min 0,000 mm 0,0 UV-I 0 W/m 8,9 C 12,3 C 0,0 km/h (0 Bft)
26.09.2023 02:08 12,3 C 8,3 C 12,2 C 12,8 C 13,3 C 80 % 0 lf 29 cb 200 cb 157 cb 196 cb 1022,0 hPa 0,0 l/m 0,0 km/h (0 Bft) N-NW 331 0 min 0,000 mm 0,0 UV-I 0 W/m 8,9 C 12,3 C 0,0 km/h (0 Bft)
26.09.2023 02:06 12,3 C 8,3 C 12,2 C 12,8 C 13,3 C 80 % 0 lf 29 cb 200 cb 157 cb 196 cb 1022,1 hPa 0,0 l/m 0,0 km/h (0 Bft) N-NW 331 0 min 0,000 mm 0,0 UV-I 0 W/m 8,9 C 12,3 C 0,0 km/h (0 Bft)
26.09.2023 02:04 12,3 C 8,3 C 12,2 C 12,8 C 13,3 C 80 % 0 lf 29 cb 200 cb 157 cb 196 cb 1022,1 hPa 0,0 l/m 0,0 km/h (0 Bft) N-NW 331 0 min 0,000 mm 0,0 UV-I 0 W/m 8,9 C 12,3 C 0,0 km/h (0 Bft)
26.09.2023 02:02 12,3 C 8,3 C 12,2 C 12,8 C 13,3 C 81 % 0 lf 29 cb 200 cb 157 cb 196 cb 1022,1 hPa 0,0 l/m 0,0 km/h (0 Bft) N-NW 331 0 min 0,000 mm 0,0 UV-I 0 W/m 9,1 C 12,3 C 0,0 km/h (0 Bft)
26.09.2023 02:00 12,3 C 8,3 C 12,2 C 12,8 C 13,3 C 81 % 0 lf 29 cb 200 cb 157 cb 196 cb 1022,1 hPa 0,0 l/m 0,0 km/h (0 Bft) N-NW 331 0 min 0,000 mm 0,0 UV-I 0 W/m 9,1 C 12,3 C 0,0 km/h (0 Bft)
26.09.2023 01:58 12,2 C 8,3 C 12,2 C 12,8 C 13,3 C 81 % 0 lf 29 cb 200 cb 157 cb 196 cb 1022,0 hPa 0,0 l/m 0,0 km/h (0 Bft) N-NW 331 0 min 0,000 mm 0,0 UV-I 0 W/m 9,0 C 12,2 C 0,0 km/h (0 Bft)
26.09.2023 01:56 12,2 C 8,3 C 12,2 C 12,8 C 13,3 C 82 % 0 lf 29 cb 200 cb 157 cb 196 cb 1022,0 hPa 0,0 l/m 0,0 km/h (0 Bft) N-NW 331 0 min 0,000 mm 0,0 UV-I 0 W/m 9,2 C 12,2 C 0,0 km/h (0 Bft)
26.09.2023 01:54 12,1 C 8,3 C 12,2 C 12,8 C 13,3 C 82 % 0 lf 29 cb 200 cb 157 cb 196 cb 1021,9 hPa 0,0 l/m 0,0 km/h (0 Bft) N-NW 331 0 min 0,000 mm 0,0 UV-I 0 W/m 9,1 C 12,1 C 0,0 km/h (0 Bft)
26.09.2023 01:52 12,1 C 8,3 C 12,2 C 12,8 C 13,3 C 82 % 0 lf 29 cb 200 cb 157 cb 196 cb 1022,1 hPa 0,0 l/m 0,0 km/h (0 Bft) N-NW 331 0 min 0,000 mm 0,0 UV-I 0 W/m 9,1 C 12,1 C 0,0 km/h (0 Bft)
26.09.2023 01:50 12,0 C 8,3 C 12,8 C 12,8 C 13,3 C 83 % 0 lf 29 cb 200 cb 157 cb 196 cb 1022,0 hPa 0,0 l/m 0,0 km/h (0 Bft) N-NW 331 0 min 0,000 mm 0,0 UV-I 0 W/m 9,2 C 12,0 C 0,0 km/h (0 Bft)
26.09.2023 01:48 11,9 C 8,3 C 12,8 C 12,8 C 13,3 C 83 % 0 lf 29 cb 200 cb 157 cb 196 cb 1022,1 hPa 0,0 l/m 0,0 km/h (0 Bft) N-NW 331 0 min 0,000 mm 0,0 UV-I 0 W/m 9,1 C 11,9 C 0,0 km/h (0 Bft)
26.09.2023 01:46 11,8 C 8,3 C 12,8 C 12,8 C 13,3 C 83 % 0 lf 29 cb 200 cb 157 cb 196 cb 1022,0 hPa 0,0 l/m 0,0 km/h (0 Bft) N-NW 331 0 min 0,000 mm 0,0 UV-I 0 W/m 9,0 C 11,8 C 0,0 km/h (0 Bft)
26.09.2023 01:44 11,8 C 8,3 C 12,8 C 12,8 C 13,3 C 83 % 0 lf 29 cb 200 cb 157 cb 196 cb 1022,0 hPa 0,0 l/m 0,0 km/h (0 Bft) N-NW 331 0 min 0,000 mm 0,0 UV-I 0 W/m 9,0 C 11,8 C 0,0 km/h (0 Bft)
26.09.2023 01:42 11,8 C 8,3 C 12,8 C 12,8 C 13,3 C 83 % 0 lf 29 cb 200 cb 157 cb 196 cb 1022,0 hPa 0,0 l/m 0,0 km/h (0 Bft) N-NW 331 0 min 0,000 mm 0,0 UV-I 0 W/m 9,0 C 11,8 C 0,0 km/h (0 Bft)
26.09.2023 01:40 11,9 C 8,3 C 12,8 C 12,8 C 13,3 C 83 % 0 lf 29 cb 200 cb 157 cb 196 cb 1022,0 hPa 0,0 l/m 0,0 km/h (0 Bft) N-NW 331 0 min 0,000 mm 0,0 UV-I 0 W/m 9,1 C 11,9 C 0,0 km/h (0 Bft)
26.09.2023 01:38 11,9 C 8,3 C 12,8 C 12,8 C 13,3 C 83 % 0 lf 29 cb 200 cb 157 cb 196 cb 1022,0 hPa 0,0 l/m 0,0 km/h (0 Bft) N-NW 331 0 min 0,000 mm 0,0 UV-I 0 W/m 9,1 C 11,9 C 0,0 km/h (0 Bft)
26.09.2023 01:36 11,9 C 8,3 C 12,8 C 12,8 C 13,3 C 83 % 0 lf 29 cb 200 cb 157 cb 196 cb 1022,0 hPa 0,0 l/m 0,0 km/h (0 Bft) N-NW 331 0 min 0,000 mm 0,0 UV-I 0 W/m 9,1 C 11,9 C 0,0 km/h (0 Bft)
26.09.2023 01:34 12,0 C 8,3 C 12,8 C 12,8 C 13,3 C 83 % 0 lf 29 cb 200 cb 157 cb 196 cb 1022,0 hPa 0,0 l/m 0,0 km/h (0 Bft) N-NW 331 0 min 0,000 mm 0,0 UV-I 0 W/m 9,2 C 12,0 C 0,0 km/h (0 Bft)
26.09.2023 01:32 12,0 C 8,3 C 12,8 C 13,3 C 13,3 C 83 % 0 lf 29 cb 200 cb 160 cb 196 cb 1022,0 hPa 0,0 l/m 0,0 km/h (0 Bft) N-NW 331 0 min 0,000 mm 0,0 UV-I 0 W/m 9,2 C 12,0 C 0,0 km/h (0 Bft)
26.09.2023 01:30 11,9 C 8,3 C 12,8 C 13,3 C 13,3 C 83 % 0 lf 29 cb 200 cb 160 cb 196 cb 1022,0 hPa 0,0 l/m 0,0 km/h (0 Bft) N-NW 331 0 min 0,000 mm 0,0 UV-I 0 W/m 9,1 C 11,9 C 0,0 km/h (0 Bft)
26.09.2023 01:28 11,9 C 8,3 C 12,8 C 13,3 C 13,3 C 83 % 0 lf 29 cb 200 cb 160 cb 196 cb 1022,0 hPa 0,0 l/m 0,0 km/h (0 Bft) N-NW 331 0 min 0,000 mm 0,0 UV-I 0 W/m 9,1 C 11,9 C 0,0 km/h (0 Bft)
26.09.2023 01:26 12,1 C 8,3 C 12,8 C 13,3 C 13,3 C 83 % 0 lf 29 cb 200 cb 160 cb 196 cb 1022,1 hPa 0,0 l/m 0,0 km/h (0 Bft) N-NW 331 0 min 0,000 mm 0,0 UV-I 0 W/m 9,3 C 12,1 C 0,0 km/h (0 Bft)
26.09.2023 01:24 12,1 C 8,3 C 12,8 C 13,3 C 13,3 C 83 % 0 lf 29 cb 200 cb 160 cb 196 cb 1022,1 hPa 0,0 l/m 0,0 km/h (0 Bft) N-NW 331 0 min 0,000 mm 0,0 UV-I 0 W/m 9,3 C 12,1 C 0,0 km/h (0 Bft)
26.09.2023 01:22 12,1 C 8,3 C 12,8 C 13,3 C 13,3 C 83 % 0 lf 29 cb 200 cb 159 cb 196 cb 1022,2 hPa 0,0 l/m 0,0 km/h (0 Bft) N-NW 331 0 min 0,000 mm 0,0 UV-I 0 W/m 9,3 C 12,1 C 0,0 km/h (0 Bft)
26.09.2023 01:20 12,2 C 8,3 C 12,8 C 13,3 C 13,3 C 83 % 0 lf 29 cb 200 cb 159 cb 196 cb 1022,2 hPa 0,0 l/m 0,0 km/h (0 Bft) N-NW 331 0 min 0,000 mm 0,0 UV-I 0 W/m 9,4 C 12,2 C 0,0 km/h (0 Bft)
26.09.2023 01:18 12,2 C 8,9 C 12,8 C 13,3 C 13,3 C 83 % 0 lf 30 cb 200 cb 159 cb 196 cb 1022,2 hPa 0,0 l/m 0,0 km/h (0 Bft) N-NW 331 0 min 0,000 mm 0,0 UV-I 0 W/m 9,4 C 12,2 C 0,0 km/h (0 Bft)
26.09.2023 01:16 12,2 C 8,3 C 12,8 C 13,3 C 13,3 C 83 % 0 lf 29 cb 200 cb 159 cb 196 cb 1022,1 hPa 0,0 l/m 0,0 km/h (0 Bft) N-NW 331 0 min 0,000 mm 0,0 UV-I 0 W/m 9,4 C 12,2 C 0,0 km/h (0 Bft)
26.09.2023 01:14 12,2 C 8,3 C 12,8 C 13,3 C 13,3 C 82 % 0 lf 29 cb 200 cb 159 cb 196 cb 1022,1 hPa 0,0 l/m 0,0 km/h (0 Bft) N-NW 331 0 min 0,000 mm 0,0 UV-I 0 W/m 9,2 C 12,2 C 0,0 km/h (0 Bft)
26.09.2023 01:12 12,2 C 8,3 C 12,8 C 13,3 C 13,3 C 82 % 0 lf 29 cb 200 cb 159 cb 196 cb 1022,1 hPa 0,0 l/m 0,0 km/h (0 Bft) N-NW 331 0 min 0,000 mm 0,0 UV-I 0 W/m 9,2 C 12,2 C 0,0 km/h (0 Bft)
26.09.2023 01:10 12,3 C 8,3 C 12,8 C 13,3 C 13,3 C 82 % 0 lf 29 cb 200 cb 159 cb 196 cb 1022,1 hPa 0,0 l/m 0,0 km/h (0 Bft) N-NW 331 0 min 0,000 mm 0,0 UV-I 0 W/m 9,3 C 12,3 C 0,0 km/h (0 Bft)
26.09.2023 01:08 12,3 C 8,9 C 12,8 C 13,3 C 13,3 C 82 % 0 lf 30 cb 200 cb 159 cb 196 cb 1022,2 hPa 0,0 l/m 0,0 km/h (0 Bft) N-NW 331 0 min 0,000 mm 0,0 UV-I 0 W/m 9,3 C 12,3 C 0,0 km/h (0 Bft)
26.09.2023 01:06 12,3 C 8,9 C 12,8 C 13,3 C 13,3 C 82 % 0 lf 30 cb 200 cb 159 cb 196 cb 1022,2 hPa 0,0 l/m 0,0 km/h (0 Bft) N-NW 331 0 min 0,000 mm 0,0 UV-I 0 W/m 9,3 C 12,3 C 0,0 km/h (0 Bft)
26.09.2023 01:04 12,3 C 8,9 C 12,8 C 13,3 C 13,3 C 82 % 0 lf 30 cb 200 cb 159 cb 196 cb 1022,3 hPa 0,0 l/m 0,0 km/h (0 Bft) N-NW 331 0 min 0,000 mm 0,0 UV-I 0 W/m 9,3 C 12,3 C 0,0 km/h (0 Bft)
26.09.2023 01:02 12,3 C 8,9 C 12,8 C 13,3 C 13,3 C 82 % 0 lf 30 cb 200 cb 159 cb 196 cb 1022,3 hPa 0,0 l/m 0,0 km/h (0 Bft) N-NW 331 0 min 0,000 mm 0,0 UV-I 0 W/m 9,3 C 12,3 C 0,0 km/h (0 Bft)
26.09.2023 01:00 12,4 C 8,9 C 12,8 C 13,3 C 13,3 C 82 % 0 lf 30 cb 200 cb 159 cb 196 cb 1022,3 hPa 0,0 l/m 0,0 km/h (0 Bft) N-NW 331 0 min 0,000 mm 0,0 UV-I 0 W/m 9,4 C 12,4 C 0,0 km/h (0 Bft)
26.09.2023 00:58 12,3 C 8,9 C 12,8 C 13,3 C 13,3 C 82 % 0 lf 30 cb 200 cb 159 cb 196 cb 1022,3 hPa 0,0 l/m 0,0 km/h (0 Bft) N-NW 331 0 min 0,000 mm 0,0 UV-I 0 W/m 9,3 C 12,3 C 0,0 km/h (0 Bft)
26.09.2023 00:56 12,3 C 8,9 C 12,8 C 13,3 C 13,3 C 82 % 0 lf 30 cb 200 cb 159 cb 196 cb 1022,2 hPa 0,0 l/m 0,0 km/h (0 Bft) N-NW 331 0 min 0,000 mm 0,0 UV-I 0 W/m 9,3 C 12,3 C 0,0 km/h (0 Bft)
26.09.2023 00:54 12,2 C 8,9 C 12,8 C 13,3 C 13,3 C 82 % 0 lf 30 cb 200 cb 159 cb 196 cb 1022,1 hPa 0,0 l/m 0,0 km/h (0 Bft) N-NW 331 0 min 0,000 mm 0,0 UV-I 0 W/m 9,2 C 12,2 C 0,0 km/h (0 Bft)
26.09.2023 00:52 12,2 C 8,9 C 12,8 C 13,3 C 13,3 C 83 % 0 lf 30 cb 200 cb 159 cb 196 cb 1022,1 hPa 0,0 l/m 0,0 km/h (0 Bft) N-NW 331 0 min 0,000 mm 0,0 UV-I 0 W/m 9,4 C 12,2 C 0,0 km/h (0 Bft)
26.09.2023 00:50 12,2 C 8,9 C 12,8 C 13,3 C 13,3 C 83 % 0 lf 30 cb 200 cb 159 cb 196 cb 1022,1 hPa 0,0 l/m 0,0 km/h (0 Bft) N-NW 331 0 min 0,000 mm 0,0 UV-I 0 W/m 9,4 C 12,2 C 0,0 km/h (0 Bft)
26.09.2023 00:48 12,1 C 8,9 C 12,8 C 13,3 C 13,3 C 83 % 0 lf 30 cb 200 cb 159 cb 196 cb 1022,2 hPa 0,0 l/m 0,0 km/h (0 Bft) N-NW 331 0 min 0,000 mm 0,0 UV-I 0 W/m 9,3 C 12,1 C 0,0 km/h (0 Bft)
26.09.2023 00:46 12,1 C 8,9 C 12,8 C 13,3 C 13,3 C 83 % 0 lf 30 cb 200 cb 159 cb 196 cb 1022,2 hPa 0,0 l/m 0,0 km/h (0 Bft) N-NW 331 0 min 0,000 mm 0,0 UV-I 0 W/m 9,3 C 12,1 C 0,0 km/h (0 Bft)
26.09.2023 00:44 12,1 C 8,9 C 12,8 C 13,3 C 13,3 C 83 % 0 lf 30 cb 200 cb 159 cb 196 cb 1022,2 hPa 0,0 l/m 0,0 km/h (0 Bft) N-NW 331 0 min 0,000 mm 0,0 UV-I 0 W/m 9,3 C 12,1 C 0,0 km/h (0 Bft)
26.09.2023 00:42 12,1 C 8,9 C 12,8 C 13,3 C 13,3 C 83 % 0 lf 30 cb 200 cb 159 cb 196 cb 1022,2 hPa 0,0 l/m 0,0 km/h (0 Bft) N-NW 331 0 min 0,000 mm 0,0 UV-I 0 W/m 9,3 C 12,1 C 0,0 km/h (0 Bft)
26.09.2023 00:40 12,2 C 8,9 C 12,8 C 13,3 C 13,3 C 83 % 0 lf 30 cb 200 cb 159 cb 196 cb 1022,2 hPa 0,0 l/m 0,0 km/h (0 Bft) N-NW 331 0 min 0,000 mm 0,0 UV-I 0 W/m 9,4 C 12,2 C 0,0 km/h (0 Bft)
26.09.2023 00:38 12,2 C 8,9 C 12,8 C 13,3 C 13,3 C 82 % 0 lf 30 cb 200 cb 159 cb 196 cb 1022,3 hPa 0,0 l/m 0,0 km/h (0 Bft) N-NW 331 0 min 0,000 mm 0,0 UV-I 0 W/m 9,2 C 12,2 C 0,0 km/h (0 Bft)
26.09.2023 00:36 12,3 C 8,3 C 12,8 C 13,3 C 13,3 C 82 % 0 lf 29 cb 200 cb 159 cb 196 cb 1022,2 hPa 0,0 l/m 0,0 km/h (0 Bft) N-NW 331 0 min 0,000 mm 0,0 UV-I 0 W/m 9,3 C 12,3 C 0,0 km/h (0 Bft)
26.09.2023 00:34 12,3 C 8,3 C 12,8 C 13,3 C 13,3 C 82 % 0 lf 29 cb 200 cb 159 cb 196 cb 1022,2 hPa 0,0 l/m 0,0 km/h (0 Bft) N-NW 331 0 min 0,000 mm 0,0 UV-I 0 W/m 9,3 C 12,3 C 0,0 km/h (0 Bft)
26.09.2023 00:32 12,3 C 8,3 C 12,8 C 13,3 C 13,3 C 82 % 0 lf 29 cb 200 cb 159 cb 196 cb 1022,3 hPa 0,0 l/m 0,0 km/h (0 Bft) N-NW 331 0 min 0,000 mm 0,0 UV-I 0 W/m 9,3 C 12,3 C 0,0 km/h (0 Bft)
26.09.2023 00:30 12,3 C 8,3 C 12,8 C 13,3 C 13,3 C 82 % 0 lf 29 cb 200 cb 159 cb 196 cb 1022,4 hPa 0,0 l/m 0,0 km/h (0 Bft) N-NW 331 0 min 0,000 mm 0,0 UV-I 0 W/m 9,3 C 12,3 C 0,0 km/h (0 Bft)
26.09.2023 00:28 12,3 C 8,3 C 12,8 C 13,3 C 13,3 C 82 % 0 lf 29 cb 200 cb 159 cb 196 cb 1022,4 hPa 0,0 l/m 0,0 km/h (0 Bft) N-NW 331 0 min 0,000 mm 0,0 UV-I 0 W/m 9,3 C 12,3 C 0,0 km/h (0 Bft)
26.09.2023 00:26 12,3 C 8,3 C 12,8 C 13,3 C 13,3 C 82 % 0 lf 29 cb 200 cb 159 cb 196 cb 1022,4 hPa 0,0 l/m 0,0 km/h (0 Bft) N-NW 331 0 min 0,000 mm 0,0 UV-I 0 W/m 9,3 C 12,3 C 0,0 km/h (0 Bft)
26.09.2023 00:24 12,4 C 8,9 C 12,8 C 13,3 C 13,3 C 81 % 0 lf 30 cb 200 cb 159 cb 196 cb 1022,3 hPa 0,0 l/m 0,0 km/h (0 Bft) N-NW 331 0 min 0,000 mm 0,0 UV-I 0 W/m 9,2 C 12,4 C 0,0 km/h (0 Bft)
26.09.2023 00:22 12,5 C 8,9 C 12,8 C 13,3 C 13,3 C 81 % 0 lf 30 cb 200 cb 159 cb 196 cb 1022,3 hPa 0,0 l/m 0,0 km/h (0 Bft) N-NW 331 0 min 0,000 mm 0,0 UV-I 0 W/m 9,3 C 12,5 C 0,0 km/h (0 Bft)
26.09.2023 00:20 12,5 C 8,9 C 12,8 C 13,3 C 13,3 C 81 % 0 lf 30 cb 200 cb 159 cb 196 cb 1022,4 hPa 0,0 l/m 0,0 km/h (0 Bft) N-NW 331 0 min 0,000 mm 0,0 UV-I 0 W/m 9,3 C 12,5 C 0,0 km/h (0 Bft)
26.09.2023 00:19 12,5 C 8,9 C 12,8 C 13,3 C 13,3 C 81 % 0 lf 30 cb 200 cb 159 cb 196 cb 1022,4 hPa 0,0 l/m 0,0 km/h (0 Bft) N-NW 331 0 min 0,000 mm 0,0 UV-I 0 W/m 9,3 C 12,5 C 0,0 km/h (0 Bft)
26.09.2023 00:16 12,5 C 8,9 C 12,8 C 13,3 C 13,3 C 82 % 0 lf 30 cb 200 cb 158 cb 196 cb 1022,3 hPa 0,0 l/m 0,0 km/h (0 Bft) N-NW 331 0 min 0,000 mm 0,0 UV-I 0 W/m 9,5 C 12,5 C 0,0 km/h (0 Bft)
26.09.2023 00:14 12,5 C 8,9 C 12,8 C 13,3 C 13,3 C 82 % 0 lf 30 cb 200 cb 158 cb 196 cb 1022,4 hPa 0,0 l/m 0,0 km/h (0 Bft) N-NW 331 0 min 0,000 mm 0,0 UV-I 0 W/m 9,5 C 12,5 C 0,0 km/h (0 Bft)
26.09.2023 00:12 12,5 C 8,9 C 12,8 C 13,3 C 13,3 C 82 % 0 lf 30 cb 200 cb 158 cb 196 cb 1022,4 hPa 0,0 l/m 0,0 km/h (0 Bft) N-NW 331 0 min 0,000 mm 0,0 UV-I 0 W/m 9,5 C 12,5 C 0,0 km/h (0 Bft)
26.09.2023 00:10 12,5 C 8,9 C 12,8 C 13,3 C 13,3 C 82 % 0 lf 30 cb 200 cb 158 cb 196 cb 1022,4 hPa 0,0 l/m 0,0 km/h (0 Bft) N-NW 331 0 min 0,000 mm 0,0 UV-I 0 W/m 9,5 C 12,5 C 0,0 km/h (0 Bft)
26.09.2023 00:08 12,6 C 8,9 C 12,8 C 13,3 C 13,3 C 82 % 0 lf 30 cb 200 cb 158 cb 196 cb 1022,4 hPa 0,0 l/m 0,0 km/h (0 Bft) N-NW 331 0 min 0,000 mm 0,0 UV-I 0 W/m 9,6 C 12,6 C 0,0 km/h (0 Bft)
26.09.2023 00:06 12,6 C 8,9 C 12,8 C 13,3 C 13,3 C 82 % 0 lf 30 cb 200 cb 158 cb 196 cb 1022,4 hPa 0,0 l/m 0,0 km/h (0 Bft) N-NW 331 0 min 0,000 mm 0,0 UV-I 0 W/m 9,6 C 12,6 C 0,0 km/h (0 Bft)
26.09.2023 00:04 12,6 C 8,9 C 12,8 C 13,3 C 13,9 C 82 % 0 lf 30 cb 200 cb 158 cb 199 cb 1022,5 hPa 0,0 l/m 0,0 km/h (0 Bft) N-NW 331 0 min 0,000 mm 0,0 UV-I 0 W/m 9,6 C 12,6 C 0,0 km/h (0 Bft)
26.09.2023 00:02 12,6 C 8,9 C 12,8 C 13,3 C 13,9 C 82 % 0 lf 30 cb 200 cb 158 cb 199 cb 1022,5 hPa 0,0 l/m 0,0 km/h (0 Bft) N-NW 331 0 min 0,000 mm 0,0 UV-I 0 W/m 9,6 C 12,6 C 0,0 km/h (0 Bft)
26.09.2023 00:00 12,7 C 8,9 C 12,8 C 13,3 C 13,9 C 82 % 0 lf 30 cb 200 cb 158 cb 199 cb 1022,4 hPa 0,0 l/m 0,0 km/h (0 Bft) N-NW 331 0 min 0,000 mm 0,0 UV-I 0 W/m 9,7 C 12,7 C 0,0 km/h (0 Bft)
_ Min-Zeit 06:36 06:04 07:06 07:34 08:14 14:30 00:00 00:26 00:00 12:22 08:14 13:32 - 00:00 - - - - - - 07:52 06:36 00:00
Minimum _ 10,6 C 7,2 C 11,1 C 11,7 C 12,2 C 51 % 0 lf 29 cb 200 cb 153 cb 191 cb 1019,7 hPa - 0,0 km/h (0 Bft) - - - - - - 8,7 C 10,6 C 0,0 km/h (0 Bft)
_ Max-Zeit 14:50 14:23 14:56 14:23 00:00 06:40 00:00 14:14 00:00 01:24 00:00 00:02 00:00 00:00 - - 07:44 14:02 13:14 12:20 13:14 14:50 00:00
Maximum _ 22,3 C 32,8 C 16,1 C 14,4 C 13,9 C 89 % 0 lf 40 cb 200 cb 160 cb 199 cb 1022,5 hPa 0,0 l/m 0,0 km/h
N-NW (0 Bft)
- - 4 min 0,355 mm 3,6 UV-I 606 W/m 13,8 C 22,3 C 0,0 km/h
- - (0 Bft)
Durchschnitt _ 14,8 C 13,1 C 12,5 C 12,7 C 12,9 C 76 % 0 lf 31 cb 200 cb 156 cb 195 cb 1021,0 hPa #0,0 l/m 0,0 km/h (0 Bft) - - - #3:26 h #1,168 mm 2,1 UV-I 236 W/m 10,5 C 14,8 C 0,0 km/h (0 Bft)